| time (UTC) | temp F | wind direction | speed MPH | gust MPH | rain 1hr in | rain 24hr in | rain mn in | humidity % | barometer mb |
| 20260904181946 | 72 | 204 | 0.0 | 0.0 | 0.00 | 2.57 | 1.08 | 92 | 1012.0 |
| 20260904181840 | 72 | 204 | 0.0 | 0.0 | 0.00 | 2.57 | 1.08 | 92 | 1012.2 |
| 20260904181734 | 72 | 204 | 0.0 | 0.0 | 0.00 | 2.56 | 1.08 | 92 | 1012.2 |
| 20260904181629 | 72 | 204 | 0.0 | 0.0 | 0.00 | 2.56 | 1.08 | 92 | 1012.3 |
| 20260904181525 | 72 | 204 | 0.0 | 0.0 | 0.00 | 2.56 | 1.07 | 92 | 1012.2 |
| 20260904181418 | 72 | 204 | 0.0 | 0.0 | 0.00 | 2.56 | 1.07 | 92 | 1012.1 |
| 20260904181316 | 72 | 204 | 0.0 | 0.0 | 0.00 | 2.56 | 1.07 | 92 | 1012.0 |
| 20260904181210 | 72 | 204 | 0.0 | 0.0 | 0.00 | 2.56 | 1.07 | 92 | 1012.0 |
| 20260904181108 | 72 | 204 | 0.0 | 0.0 | 0.00 | 2.56 | 1.07 | 92 | 1011.9 |
| 20260904181002 | 72 | 204 | 0.0 | 0.0 | 0.00 | 2.56 | 1.07 | 92 | 1012.0 |
| 20260904180639 | 72 | 204 | 0.0 | 0.0 | 0.00 | 2.56 | 1.07 | 92 | 1012.2 |
| 20260904180535 | 72 | 204 | 0.0 | 0.0 | 0.00 | 2.56 | 1.07 | 93 | 1012.2 |
| 20260904180430 | 72 | 204 | 0.0 | 0.0 | 0.00 | 2.56 | 1.07 | 92 | 1012.2 |
| 20260904180326 | 72 | 204 | 0.0 | 0.0 | 0.00 | 2.56 | 1.07 | 92 | 1012.1 |
| 20260904180219 | 72 | 204 | 0.0 | 0.0 | 0.00 | 2.56 | 1.07 | 92 | 1011.9 |
| 20260904175858 | 72 | 203 | 0.0 | 0.0 | 0.00 | 2.56 | 1.07 | 93 | 1011.9 |
| 20260904175756 | 72 | 203 | 0.0 | 0.0 | 0.00 | 2.56 | 1.07 | 93 | 1011.8 |
| 20260904175653 | 72 | 203 | 0.0 | 0.0 | 0.00 | 2.56 | 1.07 | 93 | 1011.9 |
| 20260904175547 | 72 | 203 | 0.0 | 0.0 | 0.00 | 2.56 | 1.07 | 93 | 1011.9 |
| 20260904175443 | 72 | 203 | 0.0 | 0.0 | 0.00 | 2.56 | 1.07 | 93 | 1012.0 |
| 20260904175338 | 72 | 203 | 0.0 | 0.0 | 0.00 | 2.56 | 1.07 | 93 | 1012.0 |
| 20260904175236 | 72 | 203 | 0.0 | 0.0 | 0.00 | 2.56 | 1.07 | 93 | 1012.0 |
| 20260904174907 | 72 | 203 | 0.0 | 0.0 | 0.00 | 2.56 | 1.07 | 93 | 1011.9 |
| 20260904174541 | 72 | 205 | 0.0 | 0.0 | 0.00 | 2.56 | 1.07 | 94 | 1012.1 |
| 20260904174219 | 72 | 205 | 0.0 | 0.0 | 0.00 | 2.56 | 1.07 | 94 | 1012.1 |
| 20260904174116 | 72 | 205 | 0.0 | 0.0 | 0.00 | 2.56 | 1.07 | 93 | 1012.0 |
| 20260904174014 | 72 | 205 | 0.0 | 0.0 | 0.00 | 2.56 | 1.07 | 93 | 1012.0 |
| 20260904173912 | 72 | 205 | 0.0 | 0.0 | 0.00 | 2.56 | 1.07 | 94 | 1012.0 |
| 20260904173804 | 72 | 205 | 0.0 | 0.0 | 0.00 | 2.56 | 1.07 | 94 | 1012.1 |
| 20260904173659 | 72 | 205 | 0.0 | 0.0 | 0.00 | 2.56 | 1.07 | 93 | 1012.1 |
| 20260904173553 | 72 | 205 | 0.0 | 0.0 | 0.00 | 2.56 | 1.07 | 93 | 1012.0 |
| 20260904173451 | 72 | 205 | 0.0 | 0.0 | 0.00 | 2.56 | 1.07 | 94 | 1012.1 |
| 20260904173344 | 72 | 205 | 0.0 | 0.0 | 0.00 | 2.56 | 1.07 | 94 | 1012.1 |
| 20260904173241 | 72 | 206 | 0.0 | 0.0 | 0.00 | 2.56 | 1.07 | 94 | 1012.2 |
| 20260904172913 | 72 | 206 | 0.0 | 0.0 | 0.00 | 2.56 | 1.07 | 94 | 1012.2 |
| 20260904172542 | 72 | 206 | 0.0 | 0.0 | 0.00 | 2.56 | 1.07 | 94 | 1012.2 |
| 20260904172216 | 72 | 206 | 0.0 | 0.0 | 0.00 | 2.56 | 1.07 | 94 | 1012.3 |
| 20260904172113 | 72 | 206 | 0.0 | 0.0 | 0.00 | 2.56 | 1.07 | 94 | 1012.3 |
| 20260904172011 | 72 | 206 | 0.0 | 0.0 | 0.00 | 2.56 | 1.07 | 94 | 1012.2 |
| 20260904171906 | 72 | 206 | 0.0 | 0.0 | 0.00 | 2.56 | 1.07 | 94 | 1012.2 |
| 20260904171800 | 72 | 207 | 0.0 | 0.0 | 0.00 | 2.56 | 1.07 | 94 | 1012.2 |
| 20260904171657 | 71 | 207 | 0.0 | 0.0 | 0.00 | 2.56 | 1.07 | 94 | 1012.2 |
| 20260904171551 | 71 | 207 | 0.0 | 0.0 | 0.00 | 2.56 | 1.07 | 94 | 1012.2 |
| 20260904171445 | 71 | 207 | 0.0 | 0.0 | 0.00 | 2.56 | 1.07 | 94 | 1012.2 |
| 20260904171340 | 71 | 209 | 0.0 | 0.0 | 0.00 | 2.56 | 1.07 | 94 | 1012.2 |
| 20260904171232 | 71 | 209 | 0.0 | 0.0 | 0.00 | 2.56 | 1.07 | 94 | 1012.3 |
| 20260904171130 | 71 | 209 | 0.0 | 0.0 | 0.00 | 2.56 | 1.07 | 94 | 1012.3 |
| 20260904171025 | 71 | 125 | 0.0 | 0.0 | 0.00 | 2.56 | 1.07 | 95 | 1012.3 |
| 20260904170919 | 71 | 125 | 0.0 | 0.0 | 0.00 | 2.56 | 1.07 | 94 | 1012.2 |
| 20260904170811 | 71 | 125 | 0.0 | 0.0 | 0.00 | 2.56 | 1.07 | 94 | 1012.1 |
| 20260904170707 | 71 | 125 | 0.0 | 0.0 | 0.00 | 2.56 | 1.07 | 95 | 1012.0 |
| 20260904170559 | 71 | 125 | 0.0 | 0.0 | 0.00 | 2.56 | 1.07 | 95 | 1012.0 |
| 20260904170457 | 71 | 125 | 0.0 | 0.0 | 0.00 | 2.56 | 1.07 | 94 | 1012.0 |
| 20260904165911 | 71 | 124 | 0.0 | 0.0 | 0.00 | 2.56 | 1.07 | 95 | 1012.0 |
| 20260904165804 | 71 | 124 | 0.0 | 0.0 | 0.00 | 2.56 | 1.07 | 95 | 1012.0 |
| 20260904165657 | 71 | 124 | 0.0 | 0.0 | 0.00 | 2.56 | 1.07 | 95 | 1011.9 |
| 20260904165551 | 71 | 124 | 0.0 | 0.0 | 0.00 | 2.56 | 1.07 | 95 | 1011.8 |
| 20260904165224 | 71 | 146 | 0.0 | 0.0 | 0.00 | 2.56 | 1.07 | 95 | 1011.7 |
| 20260904165118 | 71 | 130 | 0.0 | 0.0 | 0.00 | 2.56 | 1.07 | 95 | 1011.8 |
| 20260904165014 | 70 | 130 | 0.0 | 0.0 | 0.00 | 2.56 | 1.07 | 95 | 1011.8 |
| 20260904164650 | 70 | 130 | 0.0 | 0.0 | 0.00 | 2.56 | 1.07 | 94 | 1011.8 |
| 20260904164547 | 70 | 130 | 0.0 | 0.0 | 0.00 | 2.56 | 1.07 | 94 | 1011.7 |
| 20260904164441 | 70 | 130 | 0.0 | 0.0 | 0.00 | 2.56 | 1.07 | 94 | 1011.7 |
| 20260904164334 | 70 | 130 | 0.0 | 0.0 | 0.00 | 2.56 | 1.07 | 94 | 1011.6 |
| 20260904164231 | 70 | 194 | 0.0 | 0.0 | 0.00 | 2.56 | 1.07 | 94 | 1011.6 |
| 20260904163427 | 69 | 130 | 1.0 | 0.0 | 0.00 | 2.56 | 1.07 | 94 | 1010.8 |
| 20260904163324 | 69 | 122 | 2.0 | 0.0 | 0.00 | 2.56 | 1.07 | 94 | 1010.7 |
| 20260904163217 | 69 | 117 | 2.0 | 10.0 | 0.00 | 2.56 | 1.07 | 94 | 1010.7 |
| 20260904163113 | 69 | 173 | 2.0 | 10.0 | 0.00 | 2.55 | 1.07 | 94 | 1010.6 |
| 20260904162748 | 69 | 119 | 1.0 | 10.0 | 0.00 | 2.55 | 1.05 | 94 | 1010.3 |
| 20260904162645 | 69 | 138 | 1.0 | 10.0 | 0.00 | 2.55 | 1.05 | 94 | 1010.4 |
| 20260904162537 | 69 | 127 | 1.0 | 7.0 | 0.00 | 2.55 | 1.05 | 94 | 1010.6 |
| 20260904162429 | 69 | 181 | 0.0 | 7.0 | 0.00 | 2.55 | 1.05 | 94 | 1011.0 |
| 20260904162322 | 69 | 194 | 0.0 | 7.0 | 0.00 | 2.55 | 1.05 | 94 | 1011.2 |
| 20260904162219 | 69 | 171 | 0.0 | 6.0 | 0.00 | 2.55 | 1.05 | 94 | 1011.4 |
| 20260904162117 | 69 | 182 | 0.0 | 6.0 | 0.00 | 2.55 | 1.05 | 94 | 1011.6 |
| 20260904162013 | 69 | 171 | 0.0 | 6.0 | 0.00 | 2.55 | 1.05 | 94 | 1011.6 |
| 20260904161911 | 69 | 165 | 0.0 | 6.0 | 0.00 | 2.55 | 1.05 | 94 | 1011.7 |
| 20260904161807 | 69 | 186 | 0.0 | 6.0 | 0.00 | 2.55 | 1.05 | 94 | 1011.7 |
| 20260904161701 | 69 | 161 | 0.0 | 6.0 | 0.00 | 2.55 | 1.05 | 94 | 1011.8 |
| 20260904161556 | 69 | 193 | 0.0 | 6.0 | 0.04 | 2.55 | 1.05 | 94 | 1012.0 |
| 20260904161453 | 69 | 158 | 0.0 | 6.0 | 0.04 | 2.55 | 1.05 | 94 | 1012.1 |
| 20260904161346 | 69 | 169 | 0.0 | 6.0 | 0.04 | 2.55 | 1.05 | 94 | 1012.1 |
| 20260904161240 | 69 | 123 | 0.0 | 4.0 | 0.05 | 2.55 | 1.05 | 94 | 1012.2 |
| 20260904161137 | 69 | 153 | 0.0 | 0.0 | 0.05 | 2.55 | 1.05 | 94 | 1012.4 |
| 20260904161031 | 69 | 159 | 0.0 | 0.0 | 0.06 | 2.55 | 1.05 | 94 | 1012.5 |
| 20260904160927 | 69 | 149 | 0.0 | 0.0 | 0.06 | 2.55 | 1.05 | 94 | 1012.7 |
| 20260904160820 | 69 | 107 | 0.0 | 0.0 | 0.06 | 2.55 | 1.05 | 94 | 1012.8 |
| 20260904160459 | 69 | 177 | 0.0 | 0.0 | 0.06 | 2.55 | 1.05 | 94 | 1013.0 |
| 20260904160352 | 69 | 176 | 0.0 | 0.0 | 0.06 | 2.55 | 1.05 | 94 | 1012.9 |
| 20260904160250 | 69 | 152 | 0.0 | 0.0 | 0.06 | 2.55 | 1.05 | 94 | 1013.1 |
| 20260904160144 | 69 | 150 | 0.0 | 6.0 | 0.06 | 2.55 | 1.05 | 94 | 1013.1 |
| 20260904160036 | 69 | 197 | 0.0 | 6.0 | 0.06 | 2.54 | 1.05 | 94 | 1013.2 |
| 20260904155931 | 69 | 177 | 0.0 | 1.0 | 0.06 | 2.54 | 1.05 | 94 | 1013.3 |
| 20260904155829 | 69 | 164 | 0.0 | 4.0 | 0.06 | 2.54 | 1.05 | 94 | 1013.3 |
| 20260904155726 | 69 | 190 | 0.0 | 4.0 | 0.08 | 2.54 | 1.05 | 94 | 1013.3 |
| 20260904155402 | 69 | 178 | 0.0 | 2.0 | 0.10 | 2.54 | 1.05 | 94 | 1013.3 |
| 20260904155257 | 69 | 153 | 0.0 | 2.0 | 0.10 | 2.54 | 1.05 | 94 | 1013.5 |
| 20260904155153 | 69 | 173 | 0.0 | 0.0 | 0.10 | 2.54 | 1.05 | 94 | 1013.7 |
| 20260904154828 | 69 | 178 | 0.0 | 4.0 | 0.06 | 2.53 | 1.04 | 94 | 1013.8 |
| 20260904154723 | 69 | 187 | 0.0 | 4.0 | 0.06 | 2.53 | 1.04 | 94 | 1013.9 |
| 20260904154359 | 69 | 185 | 0.0 | 0.0 | 0.06 | 2.52 | 1.03 | 94 | 1014.1 |
| 20260904154253 | 69 | 186 | 0.0 | 0.0 | 0.06 | 2.52 | 1.03 | 94 | 1014.0 |
| 20260904154146 | 69 | 186 | 0.0 | 0.0 | 0.08 | 2.52 | 1.03 | 94 | 1014.0 |
| 20260904154042 | 69 | 188 | 0.0 | 0.0 | 0.09 | 2.52 | 1.03 | 94 | 1014.1 |
| 20260904153939 | 69 | 188 | 0.0 | 0.0 | 0.10 | 2.52 | 1.03 | 94 | 1014.0 |
| 20260904153356 | 69 | 193 | 0.0 | 0.0 | 0.10 | 2.51 | 1.02 | 94 | 1014.0 |
| 20260904153251 | 69 | 193 | 0.0 | 0.0 | 0.10 | 2.50 | 1.02 | 94 | 1014.1 |
| 20260904153147 | 69 | 193 | 0.0 | 0.0 | 0.10 | 2.50 | 1.01 | 94 | 1014.1 |
| 20260904152825 | 69 | 200 | 0.0 | 0.0 | 0.16 | 2.50 | 1.01 | 94 | 1014.4 |
| 20260904152721 | 69 | 202 | 0.0 | 0.0 | 0.16 | 2.49 | 1.01 | 94 | 1014.5 |
| 20260904152615 | 69 | 214 | 0.0 | 0.0 | 0.15 | 2.49 | 1.00 | 94 | 1014.7 |
| 20260904152510 | 69 | 230 | 0.0 | 0.0 | 0.15 | 2.49 | 1.00 | 94 | 1014.8 |
| 20260904151922 | 69 | 282 | 0.0 | 0.0 | 0.89 | 2.46 | 0.99 | 94 | 1014.7 |
| 20260904151819 | 69 | 282 | 0.0 | 0.0 | 0.87 | 2.44 | 0.98 | 94 | 1014.6 |
| 20260904151454 | 70 | 343 | 0.0 | 0.0 | 0.21 | 2.40 | 0.92 | 94 | 1014.7 |
| 20260904151349 | 70 | 344 | 0.0 | 0.0 | 0.21 | 2.40 | 0.91 | 94 | 1014.7 |
| 20260904151241 | 70 | 342 | 1.0 | 0.0 | 0.36 | 2.40 | 0.91 | 94 | 1014.8 |
| 20260904151136 | 70 | 15 | 1.0 | 0.0 | 0.43 | 2.39 | 0.91 | 94 | 1014.7 |
| 20260904151033 | 70 | 15 | 2.0 | 0.0 | 0.36 | 2.38 | 0.90 | 94 | 1014.7 |
| 20260904150930 | 70 | 13 | 2.0 | 0.0 | 0.27 | 2.37 | 0.89 | 94 | 1014.8 |
| 20260904150826 | 70 | 13 | 2.0 | 0.0 | 0.27 | 2.37 | 0.89 | 94 | 1014.9 |
| 20260904150720 | 70 | 313 | 2.0 | 0.0 | 0.21 | 2.36 | 0.87 | 94 | 1015.0 |
| 20260904150358 | 70 | 274 | 2.0 | 8.0 | 0.23 | 2.35 | 0.87 | 94 | 1015.5 |
| 20260904150254 | 70 | 274 | 1.0 | 8.0 | 0.09 | 2.35 | 0.86 | 94 | 1015.5 |
| 20260904150151 | 70 | 288 | 1.0 | 8.0 | 0.09 | 2.34 | 0.86 | 94 | 1015.5 |
| 20260904150046 | 70 | 269 | 0.0 | 8.0 | 0.09 | 2.34 | 0.86 | 94 | 1015.5 |
| 20260904145942 | 70 | 259 | 0.0 | 5.0 | 0.08 | 2.34 | 0.85 | 94 | 1015.4 |
| 20260904145838 | 70 | 247 | 0.0 | 5.0 | 0.08 | 2.34 | 0.85 | 94 | 1015.4 |
| 20260904145735 | 70 | 248 | 0.0 | 5.0 | 0.08 | 2.34 | 0.85 | 94 | 1015.5 |
| 20260904145631 | 70 | 267 | 0.0 | 5.0 | 0.08 | 2.34 | 0.85 | 94 | 1015.4 |
| 20260904145526 | 70 | 292 | 0.0 | 0.0 | 0.08 | 2.33 | 0.85 | 94 | 1015.2 |
| 20260904145421 | 70 | 250 | 0.0 | 0.0 | 0.08 | 2.33 | 0.85 | 94 | 1014.9 |
| 20260904145315 | 70 | 272 | 0.0 | 0.0 | 0.04 | 2.33 | 0.84 | 94 | 1014.7 |
| 20260904145212 | 70 | 272 | 0.0 | 0.0 | 0.04 | 2.33 | 0.84 | 94 | 1014.5 |
| 20260904144844 | 70 | 188 | 0.0 | 0.0 | 0.04 | 2.33 | 0.84 | 94 | 1014.3 |
| 20260904144741 | 70 | 186 | 0.0 | 0.0 | 0.04 | 2.33 | 0.84 | 94 | 1014.3 |
| 20260904144636 | 70 | 186 | 0.0 | 0.0 | 0.04 | 2.32 | 0.84 | 94 | 1014.3 |
| 20260904144533 | 70 | 186 | 0.0 | 0.0 | 0.04 | 2.32 | 0.83 | 94 | 1014.2 |
| 20260904144430 | 70 | 186 | 0.0 | 0.0 | 0.04 | 2.32 | 0.83 | 94 | 1014.1 |
| 20260904144327 | 70 | 186 | 0.0 | 0.0 | 0.05 | 2.32 | 0.83 | 94 | 1013.9 |
| 20260904144222 | 70 | 186 | 0.0 | 0.0 | 0.05 | 2.32 | 0.83 | 94 | 1013.8 |
| 20260904144119 | 70 | 187 | 0.0 | 0.0 | 0.06 | 2.32 | 0.83 | 94 | 1013.7 |
| 20260904144016 | 70 | 187 | 0.0 | 0.0 | 0.06 | 2.32 | 0.83 | 94 | 1013.7 |
| 20260904143910 | 70 | 187 | 0.0 | 0.0 | 0.06 | 2.32 | 0.83 | 94 | 1013.7 |
| 20260904143806 | 70 | 187 | 0.0 | 0.0 | 0.08 | 2.32 | 0.83 | 94 | 1013.8 |
| 20260904143218 | 70 | 102 | 0.0 | 0.0 | 0.18 | 2.31 | 0.83 | 94 | 1013.4 |
| 20260904143115 | 70 | 102 | 0.0 | 0.0 | 0.18 | 2.31 | 0.83 | 94 | 1013.3 |
| 20260904143012 | 70 | 102 | 0.0 | 0.0 | 0.10 | 2.31 | 0.81 | 94 | 1013.3 |
| 20260904142908 | 70 | 102 | 0.0 | 0.0 | 0.10 | 2.30 | 0.81 | 94 | 1013.3 |
| 20260904142806 | 70 | 102 | 0.0 | 0.0 | 0.10 | 2.30 | 0.81 | 94 | 1013.3 |
| 20260904142704 | 70 | 102 | 0.0 | 0.0 | 0.10 | 2.30 | 0.81 | 94 | 1013.3 |
| 20260904142116 | 70 | 102 | 0.0 | 0.0 | 0.10 | 2.29 | 0.80 | 94 | 1013.5 |
| 20260904142011 | 70 | 102 | 0.0 | 0.0 | 0.10 | 2.28 | 0.80 | 94 | 1013.5 |
| 20260904141908 | 70 | 102 | 0.0 | 0.0 | 0.10 | 2.28 | 0.80 | 94 | 1013.5 |
| 20260904141803 | 70 | 102 | 0.0 | 0.0 | 0.10 | 2.28 | 0.79 | 94 | 1013.4 |
| 20260904141701 | 70 | 102 | 0.0 | 0.0 | 0.13 | 2.28 | 0.79 | 94 | 1013.4 |
| 20260904141553 | 70 | 102 | 0.0 | 0.0 | 0.18 | 2.28 | 0.79 | 94 | 1013.5 |
| 20260904141450 | 70 | 102 | 0.0 | 0.0 | 0.23 | 2.28 | 0.79 | 94 | 1013.5 |
| 20260904141347 | 70 | 102 | 0.0 | 0.0 | 0.23 | 2.27 | 0.79 | 94 | 1013.5 |
| 20260904141240 | 70 | 102 | 0.0 | 0.0 | 0.23 | 2.27 | 0.77 | 94 | 1013.6 |
| 20260904141133 | 69 | 101 | 0.0 | 0.0 | 0.12 | 2.26 | 0.77 | 94 | 1013.5 |
| 20260904141028 | 70 | 100 | 0.0 | 0.0 | 0.12 | 2.26 | 0.77 | 94 | 1013.5 |
| 20260904140922 | 70 | 100 | 0.0 | 0.0 | 0.13 | 2.26 | 0.77 | 94 | 1013.4 |
| 20260904140815 | 70 | 100 | 0.0 | 0.0 | 0.18 | 2.26 | 0.77 | 94 | 1013.4 |
| 20260904140709 | 70 | 101 | 0.0 | 0.0 | 0.27 | 2.26 | 0.77 | 94 | 1013.4 |
| 20260904140605 | 70 | 101 | 0.0 | 0.0 | 0.32 | 2.25 | 0.77 | 94 | 1013.3 |
| 20260904140244 | 70 | 84 | 0.0 | 0.0 | 0.19 | 2.24 | 0.75 | 94 | 1013.5 |
| 20260904140136 | 70 | 83 | 0.0 | 0.0 | 0.27 | 2.24 | 0.75 | 94 | 1013.5 |
| 20260904140034 | 70 | 83 | 0.0 | 0.0 | 0.36 | 2.24 | 0.75 | 94 | 1013.5 |
| 20260904135711 | 70 | 71 | 0.0 | 0.0 | 0.13 | 2.22 | 0.73 | 94 | 1013.8 |
| 20260904135606 | 70 | 55 | 0.0 | 0.0 | 0.19 | 2.22 | 0.73 | 94 | 1013.9 |
| 20260904135504 | 70 | 28 | 0.0 | 0.0 | 0.24 | 2.22 | 0.73 | 94 | 1014.1 |
| 20260904135400 | 70 | 347 | 0.0 | 0.0 | 0.24 | 2.21 | 0.73 | 94 | 1014.2 |
| 20260904135255 | 70 | 347 | 0.0 | 0.0 | 0.18 | 2.21 | 0.72 | 94 | 1014.2 |
| 20260904135149 | 70 | 347 | 0.0 | 0.0 | 0.18 | 2.20 | 0.72 | 94 | 1014.3 |
| 20260904135047 | 70 | 347 | 0.0 | 0.0 | 0.18 | 2.20 | 0.72 | 94 | 1014.3 |
| 20260904134940 | 70 | 347 | 0.0 | 0.0 | 0.23 | 2.20 | 0.71 | 94 | 1014.3 |
| 20260904134836 | 70 | 347 | 0.0 | 0.0 | 0.28 | 2.20 | 0.71 | 94 | 1014.3 |
| 20260904134730 | 70 | 347 | 0.0 | 0.0 | 0.28 | 2.19 | 0.71 | 94 | 1014.4 |
| 20260904134406 | 70 | 347 | 0.0 | 0.0 | 0.36 | 2.17 | 0.69 | 94 | 1014.8 |
| 20260904134259 | 70 | 347 | 1.0 | 0.0 | 0.36 | 2.17 | 0.68 | 94 | 1015.1 |
| 20260904133938 | 70 | 347 | 3.0 | 0.0 | 0.70 | 2.14 | 0.67 | 94 | 1015.4 |
| 20260904133831 | 70 | 335 | 3.0 | 0.0 | 0.72 | 2.11 | 0.65 | 94 | 1015.4 |
| 20260904133727 | 70 | 335 | 3.0 | 0.0 | 0.80 | 2.10 | 0.64 | 94 | 1015.5 |
| 20260904133623 | 70 | 329 | 3.0 | 12.0 | 0.94 | 2.08 | 0.62 | 94 | 1015.6 |
| 20260904133518 | 70 | 333 | 3.0 | 12.0 | 1.02 | 2.07 | 0.60 | 94 | 1015.7 |
| 20260904133416 | 70 | 284 | 2.0 | 12.0 | 0.68 | 2.06 | 0.59 | 94 | 1015.7 |
| 20260904133048 | 70 | 296 | 0.0 | 6.0 | 0.92 | 2.02 | 0.55 | 94 | 1015.4 |
| 20260904132725 | 70 | 320 | 0.0 | 0.0 | 0.32 | 2.00 | 0.52 | 94 | 1015.0 |
| 20260904132622 | 69 | 314 | 0.0 | 0.0 | 0.47 | 2.00 | 0.52 | 94 | 1014.5 |
| 20260904132518 | 69 | 36 | 0.0 | 0.0 | 0.61 | 1.98 | 0.51 | 94 | 1014.0 |
| 20260904132411 | 69 | 60 | 0.0 | 0.0 | 0.00 | 1.98 | 0.50 | 94 | 1013.8 |
| 20260904132306 | 69 | 61 | 0.0 | 0.0 | 0.00 | 1.98 | 0.49 | 94 | 1013.7 |
| 20260904132201 | 69 | 61 | 0.0 | 0.0 | 0.00 | 1.98 | 0.49 | 94 | 1013.6 |
| 20260904132053 | 69 | 61 | 0.0 | 0.0 | 0.00 | 1.98 | 0.49 | 94 | 1013.4 |
| 20260904131947 | 69 | 61 | 0.0 | 0.0 | 0.00 | 1.98 | 0.49 | 94 | 1013.4 |
| 20260904131843 | 69 | 61 | 0.0 | 0.0 | 0.00 | 1.98 | 0.49 | 94 | 1013.3 |
| 20260904131740 | 69 | 51 | 0.0 | 0.0 | 0.00 | 1.98 | 0.49 | 94 | 1013.3 |
| 20260904131637 | 69 | 51 | 0.0 | 0.0 | 0.00 | 1.98 | 0.49 | 94 | 1013.2 |
| 20260904131535 | 69 | 51 | 0.0 | 0.0 | 0.00 | 1.98 | 0.49 | 94 | 1013.2 |
| 20260904131431 | 69 | 51 | 0.0 | 2.0 | 0.00 | 1.98 | 0.49 | 94 | 1013.2 |
| 20260904131111 | 69 | 31 | 0.0 | 6.0 | 0.00 | 1.98 | 0.49 | 94 | 1013.3 |
| 20260904131006 | 69 | 16 | 0.0 | 6.0 | 0.00 | 1.98 | 0.49 | 94 | 1013.3 |
| 20260904130903 | 69 | 15 | 0.0 | 6.0 | 0.00 | 1.98 | 0.49 | 94 | 1013.3 |
| 20260904130759 | 69 | 22 | 0.0 | 2.0 | 0.00 | 1.98 | 0.49 | 94 | 1013.2 |
| 20260904130435 | 69 | 51 | 0.0 | 0.0 | 0.00 | 1.98 | 0.49 | 94 | 1013.0 |
| 20260904130330 | 69 | 19 | 0.0 | 0.0 | 0.00 | 1.98 | 0.49 | 94 | 1013.0 |
| 20260904130223 | 69 | 36 | 0.0 | 0.0 | 0.00 | 1.98 | 0.49 | 94 | 1013.0 |
| 20260904130118 | 69 | 30 | 0.0 | 4.0 | 0.00 | 1.98 | 0.49 | 94 | 1012.8 |
| 20260904130015 | 69 | 39 | 0.0 | 4.0 | 0.00 | 1.98 | 0.49 | 94 | 1012.8 |
| 20260904125909 | 69 | 17 | 0.0 | 4.0 | 0.00 | 1.98 | 0.49 | 94 | 1012.8 |
| 20260904125806 | 69 | 16 | 0.0 | 0.0 | 0.00 | 1.98 | 0.49 | 94 | 1012.7 |
| 20260904125701 | 69 | 16 | 0.0 | 0.0 | 0.00 | 1.98 | 0.49 | 94 | 1012.6 |
| 20260904125553 | 69 | 203 | 0.0 | 0.0 | 0.00 | 1.98 | 0.49 | 94 | 1012.5 |
| 20260904125451 | 69 | 201 | 0.0 | 0.0 | 0.00 | 1.98 | 0.49 | 94 | 1012.5 |
| 20260904125343 | 69 | 201 | 0.0 | 0.0 | 0.00 | 1.98 | 0.49 | 94 | 1012.5 |
| 20260904125239 | 69 | 201 | 0.0 | 0.0 | 0.00 | 1.98 | 0.49 | 94 | 1012.4 |
| 20260904125137 | 69 | 201 | 0.0 | 0.0 | 0.00 | 1.98 | 0.49 | 94 | 1012.3 |
| 20260904125034 | 69 | 201 | 0.0 | 0.0 | 0.00 | 1.98 | 0.49 | 94 | 1012.3 |
| 20260904124928 | 69 | 201 | 0.0 | 0.0 | 0.00 | 1.98 | 0.49 | 94 | 1012.2 |
| 20260904124825 | 69 | 201 | 0.0 | 0.0 | 0.00 | 1.98 | 0.49 | 94 | 1012.1 |
| 20260904124718 | 69 | 201 | 0.0 | 0.0 | 0.00 | 1.98 | 0.49 | 94 | 1012.1 |
| 20260904124614 | 69 | 201 | 0.0 | 0.0 | 0.00 | 1.98 | 0.49 | 94 | 1012.1 |
| 20260904124511 | 69 | 201 | 0.0 | 0.0 | 0.00 | 1.98 | 0.49 | 94 | 1012.0 |
| 20260904124409 | 69 | 201 | 0.0 | 0.0 | 0.00 | 1.98 | 0.49 | 94 | 1011.9 |
| 20260904124305 | 69 | 201 | 0.0 | 0.0 | 0.00 | 1.98 | 0.49 | 94 | 1011.9 |
| 20260904124201 | 69 | 201 | 0.0 | 0.0 | 0.00 | 1.98 | 0.49 | 94 | 1011.9 |
| 20260904124058 | 69 | 201 | 0.0 | 0.0 | 0.00 | 1.98 | 0.49 | 94 | 1011.8 |
| 20260904123955 | 69 | 201 | 0.0 | 0.0 | 0.00 | 1.98 | 0.49 | 94 | 1011.8 |
| 20260904123848 | 69 | 201 | 0.0 | 0.0 | 0.00 | 1.98 | 0.49 | 94 | 1011.8 |
| 20260904123740 | 69 | 201 | 0.0 | 0.0 | 0.00 | 1.98 | 0.49 | 94 | 1011.8 |
| 20260904123633 | 69 | 201 | 0.0 | 0.0 | 0.00 | 1.98 | 0.49 | 94 | 1011.7 |
| 20260904123527 | 69 | 201 | 0.0 | 0.0 | 0.00 | 1.98 | 0.49 | 94 | 1011.7 |
| 20260904123424 | 69 | 201 | 0.0 | 0.0 | 0.00 | 1.98 | 0.49 | 94 | 1011.7 |
| 20260904123058 | 69 | 201 | 0.0 | 0.0 | 0.00 | 1.98 | 0.49 | 94 | 1011.7 |
| 20260904122951 | 69 | 201 | 0.0 | 0.0 | 0.00 | 1.98 | 0.49 | 94 | 1011.7 |
| 20260904122847 | 69 | 201 | 0.0 | 0.0 | 0.00 | 1.98 | 0.49 | 94 | 1011.7 |
| 20260904122740 | 69 | 201 | 0.0 | 0.0 | 0.00 | 1.98 | 0.49 | 94 | 1011.6 |
| 20260904122411 | 69 | 207 | 0.0 | 0.0 | 0.00 | 1.98 | 0.49 | 94 | 1011.6 |
| 20260904122306 | 69 | 208 | 0.0 | 0.0 | 0.00 | 1.98 | 0.49 | 94 | 1011.6 |
| 20260904122202 | 69 | 208 | 0.0 | 0.0 | 0.00 | 1.98 | 0.49 | 94 | 1011.5 |
| 20260904122054 | 69 | 236 | 0.0 | 0.0 | 0.00 | 1.98 | 0.49 | 94 | 1011.5 |
| 20260904121732 | 69 | 237 | 0.0 | 0.0 | 0.00 | 1.98 | 0.49 | 94 | 1011.3 |
| 20260904121631 | 69 | 237 | 0.0 | 0.0 | 0.00 | 1.98 | 0.49 | 94 | 1011.3 |
| 20260904121303 | 69 | 241 | 0.0 | 0.0 | 0.00 | 1.98 | 0.49 | 94 | 1011.2 |
| 20260904121156 | 69 | 191 | 0.0 | 0.0 | 0.00 | 1.98 | 0.49 | 94 | 1011.1 |
| 20260904121049 | 69 | 111 | 0.0 | 0.0 | 0.00 | 1.98 | 0.49 | 94 | 1010.9 |
| 20260904120944 | 69 | 111 | 0.0 | 0.0 | 0.00 | 1.98 | 0.49 | 94 | 1010.9 |
| 20260904120840 | 69 | 111 | 0.0 | 0.0 | 0.00 | 1.98 | 0.49 | 94 | 1010.8 |
| 20260904120736 | 69 | 68 | 0.0 | 0.0 | 0.00 | 1.98 | 0.49 | 94 | 1010.8 |
| 20260904120631 | 69 | 54 | 0.0 | 0.0 | 0.00 | 1.98 | 0.49 | 94 | 1010.8 |
| 20260904120524 | 69 | 54 | 0.0 | 0.0 | 0.00 | 1.98 | 0.49 | 94 | 1010.8 |
| 20260904120421 | 69 | 54 | 0.0 | 0.0 | 0.00 | 1.98 | 0.49 | 94 | 1010.8 |
| 20260904120316 | 69 | 54 | 0.0 | 0.0 | 0.00 | 1.98 | 0.49 | 94 | 1010.9 |
| 20260904120214 | 69 | 49 | 0.0 | 0.0 | 0.00 | 1.98 | 0.49 | 94 | 1010.9 |
| 20260904120107 | 69 | 49 | 0.0 | 0.0 | 0.00 | 1.98 | 0.49 | 94 | 1010.9 |
| 20260904120004 | 69 | 58 | 0.0 | 0.0 | 0.00 | 1.98 | 0.49 | 94 | 1010.8 |
| 20260904115900 | 69 | 63 | 0.0 | 4.0 | 0.00 | 1.98 | 0.49 | 94 | 1010.9 |
| 20260904115755 | 69 | 60 | 0.0 | 4.0 | 0.00 | 1.98 | 0.49 | 94 | 1011.0 |
| 20260904115650 | 69 | 65 | 0.0 | 1.0 | 0.00 | 1.98 | 0.49 | 94 | 1011.0 |
| 20260904115543 | 69 | 72 | 0.0 | 0.0 | 0.00 | 1.98 | 0.49 | 94 | 1011.0 |
| 20260904115219 | 69 | 100 | 0.0 | 0.0 | 0.00 | 1.98 | 0.49 | 94 | 1011.1 |
| 20260904115115 | 69 | 98 | 0.0 | 0.0 | 0.00 | 1.98 | 0.49 | 94 | 1011.2 |
| 20260904115008 | 69 | 113 | 0.0 | 0.0 | 0.00 | 1.98 | 0.49 | 94 | 1011.2 |
| 20260904114645 | 69 | 99 | 0.0 | 0.0 | 0.04 | 1.98 | 0.49 | 94 | 1011.5 |
| 20260904114539 | 69 | 148 | 0.0 | 0.0 | 0.05 | 1.98 | 0.49 | 94 | 1011.6 |
| 20260904114434 | 69 | 148 | 0.0 | 0.0 | 0.05 | 1.98 | 0.49 | 94 | 1011.8 |
| 20260904114332 | 69 | 148 | 0.0 | 0.0 | 0.06 | 1.98 | 0.49 | 94 | 1011.8 |
| 20260904114225 | 69 | 148 | 0.0 | 0.0 | 0.06 | 1.98 | 0.49 | 94 | 1011.8 |
| 20260904114121 | 69 | 148 | 0.0 | 0.0 | 0.06 | 1.98 | 0.49 | 94 | 1012.0 |
| 20260904114018 | 69 | 148 | 0.0 | 0.0 | 0.08 | 1.98 | 0.49 | 94 | 1012.0 |
| 20260904113912 | 69 | 126 | 0.0 | 0.0 | 0.10 | 1.98 | 0.49 | 94 | 1012.0 |
| 20260904113807 | 69 | 117 | 0.0 | 0.0 | 0.12 | 1.98 | 0.49 | 94 | 1012.0 |
| 20260904113702 | 69 | 117 | 0.0 | 0.0 | 0.12 | 1.98 | 0.49 | 94 | 1012.1 |
| 20260904113338 | 69 | 116 | 0.0 | 0.0 | 0.12 | 1.97 | 0.49 | 94 | 1011.9 |
| 20260904113234 | 69 | 134 | 0.0 | 0.0 | 0.00 | 1.97 | 0.48 | 94 | 1012.0 |
| 20260904113128 | 69 | 155 | 0.0 | 0.0 | 0.00 | 1.97 | 0.48 | 94 | 1012.2 |
| 20260904113025 | 69 | 159 | 0.0 | 0.0 | 0.00 | 1.97 | 0.48 | 94 | 1012.3 |
| 20260904112921 | 69 | 159 | 0.0 | 0.0 | 0.00 | 1.96 | 0.48 | 94 | 1012.4 |
| 20260904112817 | 69 | 161 | 0.0 | 0.0 | 0.00 | 1.96 | 0.47 | 94 | 1012.5 |
| 20260904112711 | 69 | 161 | 0.0 | 0.0 | 0.04 | 1.96 | 0.47 | 94 | 1012.5 |
| 20260904112607 | 69 | 161 | 0.0 | 0.0 | 0.04 | 1.96 | 0.47 | 94 | 1012.5 |
| 20260904112459 | 69 | 161 | 0.0 | 0.0 | 0.04 | 1.96 | 0.47 | 94 | 1012.6 |
| 20260904112354 | 69 | 161 | 0.0 | 0.0 | 0.05 | 1.96 | 0.47 | 94 | 1012.7 |
| 20260904112252 | 69 | 161 | 0.0 | 0.0 | 0.05 | 1.96 | 0.47 | 94 | 1012.8 |
| 20260904112145 | 69 | 161 | 0.0 | 0.0 | 0.05 | 1.96 | 0.47 | 94 | 1012.8 |
| 20260904112037 | 69 | 161 | 0.0 | 0.0 | 0.06 | 1.96 | 0.47 | 94 | 1013.0 |
| 20260904111935 | 69 | 161 | 0.0 | 0.0 | 0.06 | 1.96 | 0.47 | 94 | 1013.1 |
| 20260904111610 | 69 | 161 | 0.0 | 0.0 | 0.10 | 1.96 | 0.47 | 94 | 1013.1 |
| 20260904111507 | 69 | 161 | 0.0 | 0.0 | 0.13 | 1.96 | 0.47 | 94 | 1013.1 |
| 20260904110705 | 69 | 109 | 0.0 | 5.0 | 0.80 | 1.92 | 0.45 | 94 | 1012.9 |
| 20260904110603 | 69 | 144 | 0.0 | 4.0 | 0.61 | 1.90 | 0.43 | 94 | 1013.2 |
| 20260904110456 | 69 | 153 | 0.0 | 2.0 | 0.57 | 1.89 | 0.42 | 94 | 1013.3 |
| 20260904110350 | 69 | 180 | 0.0 | 0.0 | 0.81 | 1.88 | 0.40 | 94 | 1013.3 |
| 20260904110027 | 69 | 127 | 0.0 | 0.0 | 0.72 | 1.82 | 0.36 | 94 | 1013.5 |
| 20260904105924 | 69 | 127 | 0.0 | 0.0 | 1.32 | 1.81 | 0.34 | 94 | 1013.4 |
| 20260904105819 | 69 | 114 | 0.0 | 0.0 | 0.83 | 1.80 | 0.32 | 94 | 1013.4 |
| 20260904105716 | 69 | 113 | 0.0 | 0.0 | 0.59 | 1.78 | 0.31 | 94 | 1013.4 |
| 20260904105613 | 69 | 69 | 0.0 | 0.0 | 0.54 | 1.78 | 0.30 | 94 | 1013.3 |
| 20260904105510 | 69 | 42 | 0.0 | 0.0 | 0.80 | 1.76 | 0.28 | 94 | 1013.3 |
| 20260904105404 | 69 | 42 | 0.0 | 0.0 | 0.77 | 1.74 | 0.27 | 94 | 1013.2 |
| 20260904105258 | 69 | 41 | 0.0 | 0.0 | 1.40 | 1.73 | 0.26 | 94 | 1013.1 |
| 20260904105155 | 69 | 57 | 1.0 | 4.0 | 0.81 | 1.72 | 0.25 | 94 | 1013.0 |
| 20260904104829 | 69 | 61 | 1.0 | 4.0 | 2.42 | 1.61 | 0.19 | 94 | 1013.3 |
| 20260904104723 | 69 | 40 | 1.0 | 0.0 | 2.43 | 1.58 | 0.13 | 94 | 1013.7 |
| 20260904104402 | 69 | 301 | 2.0 | 8.0 | 0.90 | 1.54 | 0.06 | 94 | 1014.2 |
| 20260904104256 | 69 | 266 | 3.0 | 8.0 | 1.05 | 1.52 | 0.05 | 94 | 1014.3 |
| 20260904104150 | 69 | 296 | 3.0 | 8.0 | 0.80 | 1.51 | 0.03 | 94 | 1014.4 |
| 20260904103604 | 69 | 9 | 2.0 | 15.0 | 0.00 | 1.50 | 0.01 | 94 | 1013.2 |
| 20260904103500 | 69 | 345 | 1.0 | 15.0 | 0.00 | 1.50 | 0.01 | 94 | 1013.3 |
| 20260904103356 | 69 | 350 | 0.0 | 15.0 | 0.00 | 1.50 | 0.01 | 94 | 1013.3 |
| 20260904103250 | 69 | 15 | 0.0 | 15.0 | 0.00 | 1.50 | 0.01 | 94 | 1013.4 |
| 20260904102924 | 69 | 327 | 0.0 | 0.0 | 0.00 | 1.50 | 0.01 | 94 | 1013.1 |
| 20260904102818 | 69 | 334 | 0.0 | 0.0 | 0.00 | 1.50 | 0.01 | 94 | 1012.5 |
| 20260904102452 | 69 | 89 | 0.0 | 0.0 | 0.00 | 1.50 | 0.01 | 94 | 1011.6 |
| 20260904102347 | 69 | 107 | 0.0 | 0.0 | 0.00 | 1.50 | 0.01 | 94 | 1011.5 |
| 20260904102026 | 69 | 130 | 0.0 | 0.0 | 0.00 | 1.50 | 0.01 | 94 | 1011.8 |
| 20260904101922 | 69 | 130 | 0.0 | 0.0 | 0.00 | 1.50 | 0.01 | 94 | 1011.9 |
| 20260904101817 | 69 | 130 | 0.0 | 0.0 | 0.00 | 1.50 | 0.01 | 94 | 1011.9 |
| 20260904101447 | 69 | 130 | 0.0 | 0.0 | 0.00 | 1.50 | 0.01 | 94 | 1011.7 |
| 20260904101121 | 69 | 150 | 0.0 | 0.0 | 0.00 | 1.50 | 0.01 | 94 | 1011.7 |
| 20260904101014 | 69 | 144 | 0.0 | 0.0 | 0.00 | 1.50 | 0.01 | 94 | 1011.8 |
| 20260904100911 | 69 | 138 | 0.0 | 0.0 | 0.00 | 1.50 | 0.01 | 94 | 1011.8 |
| 20260904100808 | 69 | 107 | 0.0 | 0.0 | 0.00 | 1.50 | 0.01 | 94 | 1011.8 |
| 20260904100702 | 69 | 146 | 0.0 | 0.0 | 0.00 | 1.50 | 0.01 | 94 | 1011.7 |
| 20260904100559 | 69 | 125 | 0.0 | 0.0 | 0.00 | 1.50 | 0.01 | 94 | 1011.6 |
| 20260904100454 | 69 | 125 | 0.0 | 0.0 | 0.00 | 1.50 | 0.01 | 94 | 1011.6 |
| 20260904100351 | 69 | 130 | 0.0 | 0.0 | 0.00 | 1.50 | 0.01 | 94 | 1011.5 |
| 20260904100248 | 69 | 125 | 0.0 | 0.0 | 0.00 | 1.50 | 0.01 | 94 | 1011.4 |
| 20260904100141 | 69 | 86 | 0.0 | 0.0 | 0.00 | 1.50 | 0.01 | 94 | 1011.3 |
| 20260904100038 | 69 | 86 | 0.0 | 0.0 | 0.00 | 1.50 | 0.01 | 94 | 1011.4 |
| 20260904095932 | 69 | 86 | 0.0 | 0.0 | 0.00 | 1.50 | 0.01 | 94 | 1011.4 |
| 20260904095827 | 68 | 86 | 0.0 | 0.0 | 0.00 | 1.50 | 0.01 | 94 | 1011.5 |
| 20260904095725 | 68 | 86 | 0.0 | 0.0 | 0.00 | 1.50 | 0.01 | 94 | 1011.6 |
| 20260904095356 | 68 | 91 | 0.0 | 0.0 | 0.00 | 1.50 | 0.01 | 94 | 1011.4 |
| 20260904095250 | 68 | 88 | 0.0 | 0.0 | 0.00 | 1.50 | 0.01 | 94 | 1011.3 |
| 20260904095143 | 68 | 88 | 0.0 | 0.0 | 0.00 | 1.50 | 0.01 | 94 | 1011.3 |
| 20260904095036 | 68 | 111 | 0.0 | 0.0 | 0.00 | 1.50 | 0.01 | 94 | 1011.2 |
| 20260904094930 | 68 | 112 | 0.0 | 0.0 | 0.00 | 1.50 | 0.01 | 94 | 1011.1 |
| 20260904094824 | 68 | 112 | 0.0 | 0.0 | 0.00 | 1.50 | 0.01 | 94 | 1011.1 |
| 20260904094246 | 68 | 139 | 0.0 | 0.0 | 0.00 | 1.50 | 0.01 | 94 | 1011.3 |
| 20260904093924 | 68 | 140 | 0.0 | 0.0 | 0.00 | 1.50 | 0.01 | 94 | 1011.1 |
| 20260904093820 | 68 | 140 | 0.0 | 0.0 | 0.00 | 1.50 | 0.01 | 94 | 1011.0 |
| 20260904093716 | 68 | 140 | 0.0 | 0.0 | 0.00 | 1.50 | 0.01 | 94 | 1011.0 |
| 20260904093612 | 68 | 140 | 0.0 | 0.0 | 0.00 | 1.50 | 0.01 | 94 | 1011.0 |
| 20260904093507 | 68 | 140 | 0.0 | 0.0 | 0.00 | 1.50 | 0.01 | 94 | 1010.9 |
| 20260904093401 | 68 | 140 | 0.0 | 0.0 | 0.00 | 1.50 | 0.01 | 94 | 1010.6 |
| 20260904093256 | 68 | 140 | 0.0 | 0.0 | 0.00 | 1.50 | 0.01 | 94 | 1010.5 |
| 20260904093152 | 68 | 140 | 0.0 | 0.0 | 0.00 | 1.50 | 0.01 | 94 | 1010.5 |
| 20260904093049 | 68 | 140 | 0.0 | 0.0 | 0.00 | 1.50 | 0.01 | 94 | 1010.5 |
| 20260904092946 | 68 | 140 | 0.0 | 0.0 | 0.00 | 1.50 | 0.01 | 94 | 1010.6 |
| 20260904092623 | 68 | 140 | 0.0 | 0.0 | 0.00 | 1.50 | 0.01 | 94 | 1010.8 |
| 20260904092518 | 68 | 140 | 0.0 | 0.0 | 0.00 | 1.50 | 0.01 | 94 | 1010.9 |
| 20260904092412 | 68 | 140 | 0.0 | 0.0 | 0.00 | 1.50 | 0.01 | 94 | 1010.8 |
| 20260904092046 | 68 | 140 | 0.0 | 0.0 | 0.00 | 1.50 | 0.01 | 94 | 1010.7 |
| 20260904091942 | 68 | 140 | 0.0 | 0.0 | 0.00 | 1.50 | 0.01 | 94 | 1010.6 |
| 20260904091835 | 68 | 140 | 0.0 | 0.0 | 0.00 | 1.50 | 0.01 | 94 | 1010.6 |
| 20260904091511 | 68 | 141 | 0.0 | 0.0 | 0.00 | 1.50 | 0.01 | 94 | 1010.6 |
| 20260904091406 | 68 | 142 | 0.0 | 0.0 | 0.00 | 1.50 | 0.01 | 94 | 1010.7 |
| 20260904091300 | 68 | 141 | 0.0 | 0.0 | 0.00 | 1.50 | 0.01 | 94 | 1010.5 |
| 20260904091156 | 68 | 141 | 0.0 | 0.0 | 0.00 | 1.50 | 0.01 | 94 | 1010.5 |
| 20260904091052 | 68 | 143 | 0.0 | 0.0 | 0.00 | 1.50 | 0.01 | 94 | 1010.5 |
| 20260904090729 | 68 | 144 | 0.0 | 0.0 | 0.00 | 1.50 | 0.01 | 94 | 1010.7 |
| 20260904090622 | 68 | 144 | 0.0 | 0.0 | 0.00 | 1.50 | 0.01 | 94 | 1011.0 |
| 20260904090514 | 68 | 144 | 0.0 | 0.0 | 0.00 | 1.50 | 0.01 | 94 | 1011.1 |
| 20260904090407 | 68 | 144 | 0.0 | 0.0 | 0.00 | 1.50 | 0.01 | 94 | 1011.2 |
| 20260904090302 | 68 | 144 | 0.0 | 0.0 | 0.00 | 1.50 | 0.01 | 94 | 1011.3 |
| 20260904090157 | 68 | 144 | 0.0 | 0.0 | 0.00 | 1.50 | 0.01 | 94 | 1011.3 |
| 20260904090053 | 68 | 144 | 0.0 | 0.0 | 0.00 | 1.50 | 0.01 | 94 | 1011.3 |
| 20260904085947 | 68 | 144 | 0.0 | 0.0 | 0.00 | 1.50 | 0.01 | 94 | 1011.3 |
| 20260904085841 | 68 | 144 | 0.0 | 0.0 | 0.00 | 1.50 | 0.01 | 94 | 1011.3 |
| 20260904085737 | 68 | 144 | 0.0 | 0.0 | 0.00 | 1.50 | 0.01 | 94 | 1011.3 |
| 20260904085632 | 68 | 144 | 0.0 | 0.0 | 0.00 | 1.50 | 0.01 | 94 | 1011.2 |
| 20260904085527 | 68 | 144 | 0.0 | 0.0 | 0.00 | 1.50 | 0.01 | 94 | 1011.3 |
| 20260904085424 | 68 | 144 | 0.0 | 0.0 | 0.00 | 1.50 | 0.01 | 94 | 1011.3 |
| 20260904085100 | 68 | 144 | 0.0 | 0.0 | 0.00 | 1.50 | 0.01 | 94 | 1011.3 |
| 20260904084955 | 68 | 144 | 0.0 | 0.0 | 0.00 | 1.50 | 0.01 | 94 | 1011.3 |
| 20260904084849 | 68 | 144 | 0.0 | 0.0 | 0.00 | 1.50 | 0.01 | 94 | 1011.3 |
| 20260904084744 | 68 | 144 | 0.0 | 0.0 | 0.00 | 1.50 | 0.01 | 94 | 1011.3 |
| 20260904084638 | 68 | 144 | 0.0 | 0.0 | 0.00 | 1.50 | 0.01 | 94 | 1011.3 |
| 20260904084533 | 68 | 144 | 0.0 | 0.0 | 0.00 | 1.50 | 0.01 | 94 | 1011.4 |
| 20260904084427 | 68 | 144 | 0.0 | 0.0 | 0.00 | 1.50 | 0.01 | 94 | 1011.4 |
| 20260904084324 | 68 | 146 | 0.0 | 0.0 | 0.00 | 1.50 | 0.01 | 94 | 1011.4 |
| 20260904084220 | 68 | 146 | 0.0 | 0.0 | 0.00 | 1.50 | 0.01 | 94 | 1011.4 |
| 20260904084117 | 68 | 146 | 0.0 | 0.0 | 0.00 | 1.50 | 0.01 | 94 | 1011.4 |
| 20260904084012 | 68 | 146 | 0.0 | 0.0 | 0.00 | 1.50 | 0.01 | 94 | 1011.4 |
| 20260904083906 | 68 | 146 | 0.0 | 0.0 | 0.00 | 1.50 | 0.01 | 94 | 1011.4 |
| 20260904083542 | 68 | 146 | 0.0 | 0.0 | 0.00 | 1.50 | 0.01 | 94 | 1011.4 |
| 20260904083437 | 68 | 146 | 0.0 | 0.0 | 0.00 | 1.50 | 0.01 | 94 | 1011.3 |
| 20260904083115 | 68 | 146 | 0.0 | 0.0 | 0.00 | 1.50 | 0.01 | 94 | 1011.3 |
| 20260904083011 | 68 | 146 | 0.0 | 0.0 | 0.00 | 1.50 | 0.01 | 94 | 1011.3 |
| 20260904082905 | 68 | 146 | 0.0 | 0.0 | 0.00 | 1.50 | 0.01 | 94 | 1011.3 |
| 20260904082758 | 68 | 146 | 0.0 | 0.0 | 0.00 | 1.50 | 0.01 | 94 | 1011.4 |
| 20260904082433 | 68 | 146 | 0.0 | 0.0 | 0.00 | 1.50 | 0.01 | 94 | 1011.5 |
| 20260904082110 | 68 | 146 | 0.0 | 0.0 | 0.00 | 1.50 | 0.01 | 94 | 1011.5 |
| 20260904081745 | 68 | 146 | 0.0 | 0.0 | 0.00 | 1.50 | 0.01 | 94 | 1011.5 |
| 20260904081643 | 68 | 146 | 0.0 | 0.0 | 0.00 | 1.50 | 0.01 | 94 | 1011.5 |
| 20260904081540 | 68 | 146 | 0.0 | 0.0 | 0.00 | 1.50 | 0.01 | 94 | 1011.5 |
| 20260904081436 | 68 | 146 | 0.0 | 0.0 | 0.00 | 1.50 | 0.01 | 94 | 1011.5 |
| 20260904081333 | 68 | 146 | 0.0 | 0.0 | 0.00 | 1.50 | 0.01 | 94 | 1011.5 |
| 20260904081227 | 68 | 146 | 0.0 | 0.0 | 0.00 | 1.50 | 0.01 | 94 | 1011.5 |
| 20260904081121 | 68 | 146 | 0.0 | 0.0 | 0.00 | 1.50 | 0.01 | 94 | 1011.5 |
| 20260904081018 | 68 | 146 | 0.0 | 0.0 | 0.00 | 1.50 | 0.01 | 94 | 1011.5 |
| 20260904080916 | 68 | 146 | 0.0 | 0.0 | 0.00 | 1.50 | 0.01 | 94 | 1011.5 |
| 20260904080808 | 68 | 146 | 0.0 | 0.0 | 0.00 | 1.50 | 0.01 | 94 | 1011.5 |
| 20260904080705 | 68 | 146 | 0.0 | 0.0 | 0.00 | 1.50 | 0.01 | 94 | 1011.4 |
| 20260904080558 | 68 | 146 | 0.0 | 0.0 | 0.00 | 1.50 | 0.01 | 94 | 1011.4 |
| 20260904080454 | 67 | 146 | 0.0 | 0.0 | 0.00 | 1.50 | 0.01 | 94 | 1011.4 |
| 20260904080132 | 67 | 146 | 0.0 | 0.0 | 0.00 | 1.50 | 0.01 | 94 | 1011.4 |
| 20260904075805 | 67 | 146 | 0.0 | 0.0 | 0.00 | 1.50 | 0.01 | 94 | 1011.3 |
| 20260904075701 | 67 | 146 | 0.0 | 0.0 | 0.00 | 1.50 | 0.01 | 94 | 1011.2 |
| 20260904075553 | 67 | 146 | 0.0 | 0.0 | 0.00 | 1.50 | 0.01 | 94 | 1011.2 |
| 20260904075450 | 67 | 146 | 0.0 | 0.0 | 0.00 | 1.50 | 0.01 | 94 | 1011.2 |
| 20260904075347 | 67 | 146 | 0.0 | 0.0 | 0.00 | 1.50 | 0.01 | 94 | 1011.2 |
| 20260904075240 | 67 | 146 | 0.0 | 0.0 | 0.00 | 1.50 | 0.01 | 94 | 1011.2 |
| 20260904075137 | 67 | 146 | 0.0 | 0.0 | 0.00 | 1.50 | 0.01 | 94 | 1011.2 |
| 20260904075031 | 67 | 146 | 0.0 | 0.0 | 0.00 | 1.50 | 0.01 | 94 | 1011.2 |
| 20260904074929 | 67 | 146 | 0.0 | 0.0 | 0.00 | 1.50 | 0.01 | 94 | 1011.2 |
| 20260904074824 | 67 | 146 | 0.0 | 0.0 | 0.00 | 1.50 | 0.01 | 94 | 1011.1 |
| 20260904074717 | 67 | 146 | 0.0 | 0.0 | 0.00 | 1.50 | 0.01 | 94 | 1011.2 |
| 20260904074612 | 67 | 146 | 0.0 | 0.0 | 0.00 | 1.50 | 0.01 | 94 | 1011.2 |
| 20260904074506 | 67 | 146 | 0.0 | 0.0 | 0.00 | 1.50 | 0.01 | 94 | 1011.1 |
| 20260904074404 | 67 | 146 | 0.0 | 0.0 | 0.00 | 1.50 | 0.01 | 94 | 1011.2 |
| 20260904074257 | 67 | 146 | 0.0 | 0.0 | 0.00 | 1.50 | 0.01 | 94 | 1011.1 |
| 20260904074153 | 67 | 146 | 0.0 | 0.0 | 0.00 | 1.50 | 0.01 | 94 | 1011.1 |
| 20260904074046 | 67 | 146 | 0.0 | 0.0 | 0.00 | 1.50 | 0.01 | 94 | 1011.1 |
| 20260904073940 | 67 | 146 | 0.0 | 0.0 | 0.00 | 1.50 | 0.01 | 94 | 1011.1 |
| 20260904073837 | 67 | 146 | 0.0 | 0.0 | 0.00 | 1.50 | 0.01 | 94 | 1011.1 |
| 20260904073735 | 67 | 146 | 0.0 | 0.0 | 0.00 | 1.50 | 0.01 | 94 | 1011.1 |
| 20260904073631 | 67 | 146 | 0.0 | 0.0 | 0.00 | 1.50 | 0.01 | 94 | 1011.1 |
| 20260904073524 | 67 | 146 | 0.0 | 0.0 | 0.00 | 1.50 | 0.01 | 94 | 1011.1 |
| 20260904073417 | 67 | 146 | 0.0 | 0.0 | 0.00 | 1.50 | 0.01 | 94 | 1011.1 |
| 20260904073315 | 67 | 146 | 0.0 | 0.0 | 0.00 | 1.50 | 0.01 | 94 | 1011.0 |
| 20260904073213 | 67 | 146 | 0.0 | 0.0 | 0.00 | 1.50 | 0.01 | 94 | 1011.0 |
| 20260904072849 | 67 | 146 | 0.0 | 0.0 | 0.00 | 1.50 | 0.01 | 94 | 1011.1 |
| 20260904072525 | 67 | 146 | 0.0 | 0.0 | 0.00 | 1.50 | 0.01 | 94 | 1011.2 |
| 20260904072419 | 67 | 146 | 0.0 | 0.0 | 0.00 | 1.50 | 0.01 | 94 | 1011.2 |
| 20260904072314 | 67 | 146 | 0.0 | 0.0 | 0.00 | 1.50 | 0.01 | 94 | 1011.2 |
| 20260904071953 | 67 | 146 | 0.0 | 0.0 | 0.00 | 1.50 | 0.01 | 94 | 1011.3 |
| 20260904071850 | 67 | 146 | 0.0 | 0.0 | 0.00 | 1.50 | 0.01 | 94 | 1011.3 |
| 20260904071745 | 67 | 146 | 0.0 | 0.0 | 0.00 | 1.50 | 0.01 | 94 | 1011.3 |
| 20260904071639 | 67 | 146 | 0.0 | 0.0 | 0.00 | 1.50 | 0.01 | 94 | 1011.3 |
| 20260904071537 | 67 | 146 | 0.0 | 0.0 | 0.00 | 1.50 | 0.01 | 94 | 1011.3 |
| 20260904070952 | 68 | 146 | 0.0 | 0.0 | 0.00 | 1.50 | 0.01 | 94 | 1011.5 |
| 20260904070846 | 68 | 146 | 0.0 | 0.0 | 0.00 | 1.50 | 0.01 | 94 | 1011.5 |
| 20260904070743 | 68 | 146 | 0.0 | 0.0 | 0.00 | 1.50 | 0.01 | 94 | 1011.5 |
| 20260904070635 | 68 | 146 | 0.0 | 0.0 | 0.00 | 1.50 | 0.01 | 94 | 1011.5 |
| 20260904070528 | 68 | 146 | 0.0 | 0.0 | 0.00 | 1.50 | 0.01 | 94 | 1011.6 |
| 20260904070421 | 68 | 146 | 0.0 | 0.0 | 0.00 | 1.50 | 0.01 | 94 | 1011.6 |
| 20260904070314 | 68 | 146 | 0.0 | 0.0 | 0.00 | 1.50 | 0.01 | 94 | 1011.6 |
| 20260904065945 | 68 | 146 | 0.0 | 0.0 | 0.00 | 1.50 | 0.01 | 94 | 1011.7 |
| 20260904065841 | 68 | 146 | 0.0 | 0.0 | 0.00 | 1.50 | 0.01 | 94 | 1011.7 |
| 20260904065738 | 68 | 146 | 0.0 | 0.0 | 0.00 | 1.50 | 0.01 | 94 | 1011.7 |
| 20260904065633 | 68 | 146 | 0.0 | 0.0 | 0.00 | 1.50 | 0.01 | 94 | 1011.8 |
| 20260904065530 | 68 | 146 | 0.0 | 0.0 | 0.00 | 1.50 | 0.01 | 94 | 1011.8 |
| 20260904065423 | 68 | 146 | 0.0 | 0.0 | 0.00 | 1.50 | 0.01 | 94 | 1011.8 |
| 20260904065321 | 68 | 146 | 0.0 | 0.0 | 0.00 | 1.50 | 0.01 | 94 | 1011.8 |
| 20260904065216 | 68 | 146 | 0.0 | 0.0 | 0.00 | 1.50 | 0.01 | 94 | 1011.8 |
| 20260904065112 | 68 | 146 | 0.0 | 0.0 | 0.00 | 1.50 | 0.01 | 94 | 1011.8 |
| 20260904065005 | 68 | 146 | 0.0 | 0.0 | 0.00 | 1.50 | 0.01 | 94 | 1011.8 |
| 20260904064858 | 68 | 146 | 0.0 | 0.0 | 0.00 | 1.50 | 0.01 | 94 | 1011.8 |
| 20260904064751 | 68 | 146 | 0.0 | 0.0 | 0.00 | 1.50 | 0.01 | 94 | 1011.8 |
| 20260904064644 | 68 | 146 | 0.0 | 0.0 | 0.00 | 1.50 | 0.01 | 94 | 1011.8 |
| 20260904064316 | 68 | 146 | 0.0 | 0.0 | 0.00 | 1.50 | 0.01 | 93 | 1011.8 |
| 20260904064208 | 68 | 146 | 0.0 | 0.0 | 0.00 | 1.50 | 0.01 | 93 | 1011.9 |
| 20260904064106 | 68 | 146 | 0.0 | 0.0 | 0.00 | 1.50 | 0.01 | 93 | 1011.8 |
| 20260904063743 | 68 | 146 | 0.0 | 0.0 | 0.00 | 1.50 | 0.01 | 94 | 1011.7 |
| 20260904063637 | 68 | 146 | 0.0 | 0.0 | 0.00 | 1.50 | 0.01 | 94 | 1011.7 |
| 20260904063534 | 68 | 146 | 0.0 | 0.0 | 0.00 | 1.50 | 0.01 | 94 | 1011.8 |
| 20260904063428 | 68 | 146 | 0.0 | 0.0 | 0.00 | 1.50 | 0.01 | 94 | 1011.8 |
| 20260904063324 | 68 | 146 | 0.0 | 0.0 | 0.00 | 1.50 | 0.01 | 94 | 1011.8 |
| 20260904063216 | 68 | 146 | 0.0 | 0.0 | 0.00 | 1.50 | 0.01 | 94 | 1011.8 |
| 20260904063113 | 68 | 146 | 0.0 | 0.0 | 0.00 | 1.50 | 0.01 | 94 | 1011.8 |
| 20260904063009 | 68 | 146 | 0.0 | 0.0 | 0.00 | 1.50 | 0.01 | 94 | 1011.8 |
| 20260904062904 | 68 | 146 | 0.0 | 0.0 | 0.00 | 1.50 | 0.01 | 94 | 1011.8 |
| 20260904062759 | 68 | 146 | 0.0 | 0.0 | 0.00 | 1.50 | 0.01 | 94 | 1011.8 |
| 20260904062653 | 68 | 146 | 0.0 | 0.0 | 0.00 | 1.50 | 0.01 | 94 | 1011.8 |
| 20260904062549 | 68 | 146 | 0.0 | 0.0 | 0.00 | 1.50 | 0.01 | 94 | 1011.8 |
| 20260904062446 | 68 | 146 | 0.0 | 0.0 | 0.00 | 1.50 | 0.01 | 94 | 1011.8 |
| 20260904062343 | 68 | 146 | 0.0 | 0.0 | 0.00 | 1.50 | 0.01 | 94 | 1011.8 |
| 20260904062239 | 68 | 146 | 0.0 | 0.0 | 0.00 | 1.50 | 0.01 | 94 | 1011.9 |
| 20260904062133 | 68 | 146 | 0.0 | 0.0 | 0.00 | 1.50 | 0.01 | 94 | 1011.9 |
| 20260904062027 | 68 | 146 | 0.0 | 0.0 | 0.00 | 1.50 | 0.01 | 94 | 1011.9 |
| 20260904061923 | 68 | 146 | 0.0 | 0.0 | 0.00 | 1.50 | 0.01 | 94 | 1011.9 |
| 20260904061559 | 68 | 146 | 0.0 | 0.0 | 0.00 | 1.50 | 0.01 | 94 | 1011.8 |
| 20260904061231 | 68 | 146 | 0.0 | 0.0 | 0.00 | 1.50 | 0.01 | 94 | 1011.8 |
| 20260904061127 | 68 | 146 | 0.0 | 0.0 | 0.00 | 1.50 | 0.01 | 94 | 1011.8 |
| 20260904061022 | 68 | 146 | 0.0 | 0.0 | 0.00 | 1.50 | 0.01 | 94 | 1011.8 |
| 20260904060918 | 68 | 146 | 0.0 | 0.0 | 0.00 | 1.50 | 0.01 | 94 | 1011.9 |
| 20260904060553 | 68 | 146 | 0.0 | 0.0 | 0.00 | 1.50 | 0.01 | 94 | 1011.9 |
| 20260904060449 | 68 | 146 | 0.0 | 0.0 | 0.00 | 1.50 | 0.01 | 94 | 1011.9 |
| 20260904060341 | 68 | 146 | 0.0 | 0.0 | 0.00 | 1.50 | 0.01 | 94 | 1011.8 |
| 20260904060233 | 68 | 146 | 0.0 | 0.0 | 0.00 | 1.50 | 0.01 | 94 | 1011.8 |
| 20260904060129 | 68 | 146 | 0.0 | 0.0 | 0.00 | 1.50 | 0.01 | 94 | 1011.9 |
| 20260904060024 | 68 | 146 | 0.0 | 0.0 | 0.00 | 1.50 | 0.01 | 94 | 1011.9 |
| 20260904055920 | 68 | 146 | 0.0 | 0.0 | 0.00 | 1.50 | 0.01 | 94 | 1011.8 |
| 20260904055555 | 68 | 146 | 0.0 | 0.0 | 0.00 | 1.50 | 0.01 | 94 | 1011.9 |
| 20260904055447 | 68 | 146 | 0.0 | 0.0 | 0.00 | 1.49 | 0.01 | 94 | 1011.9 |
| 20260904055344 | 68 | 146 | 0.0 | 0.0 | 0.00 | 1.49 | 0.00 | 94 | 1011.9 |
| 20260904055240 | 68 | 146 | 0.0 | 0.0 | 0.00 | 1.49 | 0.00 | 94 | 1011.9 |
| 20260904055136 | 68 | 146 | 0.0 | 0.0 | 0.00 | 1.49 | 0.00 | 94 | 1011.9 |
| 20260904055030 | 68 | 146 | 0.0 | 0.0 | 0.00 | 1.49 | 0.00 | 94 | 1011.9 |
| 20260904054925 | 68 | 146 | 0.0 | 0.0 | 0.00 | 1.49 | 0.00 | 94 | 1011.9 |
| 20260904054823 | 68 | 146 | 0.0 | 0.0 | 0.00 | 1.49 | 0.00 | 94 | 1011.9 |
| 20260904054721 | 68 | 146 | 0.0 | 0.0 | 0.00 | 1.49 | 0.00 | 94 | 1011.9 |
| 20260904054618 | 68 | 146 | 0.0 | 0.0 | 0.00 | 1.49 | 0.00 | 94 | 1012.0 |
| 20260904054515 | 68 | 146 | 0.0 | 0.0 | 0.00 | 1.49 | 0.00 | 94 | 1011.9 |
| 20260904054409 | 68 | 146 | 0.0 | 0.0 | 0.00 | 1.49 | 0.00 | 94 | 1011.9 |
| 20260904054046 | 68 | 146 | 0.0 | 0.0 | 0.00 | 1.49 | 0.00 | 94 | 1011.9 |
| 20260904053939 | 68 | 146 | 0.0 | 0.0 | 0.00 | 1.49 | 0.00 | 94 | 1011.9 |
| 20260904053837 | 68 | 146 | 0.0 | 0.0 | 0.00 | 1.49 | 0.00 | 94 | 1011.9 |
| 20260904053734 | 68 | 146 | 0.0 | 0.0 | 0.00 | 1.49 | 0.00 | 94 | 1011.9 |
| 20260904053626 | 68 | 146 | 0.0 | 0.0 | 0.00 | 1.49 | 0.00 | 94 | 1011.9 |
| 20260904053302 | 68 | 146 | 0.0 | 0.0 | 0.00 | 1.49 | 0.00 | 94 | 1011.8 |
| 20260904053200 | 68 | 146 | 0.0 | 0.0 | 0.00 | 1.49 | 0.00 | 94 | 1011.8 |
| 20260904053053 | 68 | 146 | 0.0 | 0.0 | 0.00 | 1.49 | 0.00 | 94 | 1011.8 |
| 20260904052946 | 68 | 146 | 0.0 | 0.0 | 0.00 | 1.49 | 0.00 | 94 | 1011.8 |
| 20260904052623 | 68 | 146 | 0.0 | 0.0 | 0.00 | 1.49 | 0.00 | 94 | 1011.9 |
| 20260904052515 | 68 | 146 | 0.0 | 0.0 | 0.00 | 1.49 | 0.00 | 94 | 1011.9 |
| 20260904051926 | 68 | 146 | 0.0 | 0.0 | 0.00 | 1.49 | 0.00 | 94 | 1012.1 |
| 20260904051820 | 68 | 146 | 0.0 | 0.0 | 0.00 | 1.49 | 0.00 | 94 | 1012.1 |
| 20260904051713 | 68 | 146 | 0.0 | 0.0 | 0.00 | 1.49 | 0.00 | 94 | 1012.1 |
| 20260904051611 | 68 | 146 | 0.0 | 0.0 | 0.00 | 1.49 | 0.00 | 94 | 1012.1 |
| 20260904051508 | 68 | 146 | 0.0 | 0.0 | 0.00 | 1.49 | 0.00 | 94 | 1012.1 |
| 20260904051403 | 68 | 146 | 0.0 | 0.0 | 0.00 | 1.49 | 0.00 | 94 | 1012.0 |
| 20260904051301 | 68 | 146 | 0.0 | 0.0 | 0.00 | 1.49 | 0.00 | 94 | 1012.1 |
| 20260904051157 | 68 | 146 | 0.0 | 0.0 | 0.00 | 1.49 | 0.00 | 94 | 1012.0 |
| 20260904051051 | 68 | 146 | 0.0 | 0.0 | 0.00 | 1.49 | 0.00 | 94 | 1012.0 |
| 20260904050946 | 68 | 146 | 0.0 | 0.0 | 0.00 | 1.49 | 0.00 | 94 | 1012.0 |
| 20260904050841 | 68 | 146 | 0.0 | 0.0 | 0.00 | 1.49 | 0.00 | 94 | 1012.0 |
| 20260904050734 | 68 | 146 | 0.0 | 0.0 | 0.00 | 1.49 | 0.00 | 94 | 1012.0 |
| 20260904050628 | 68 | 146 | 0.0 | 0.0 | 0.00 | 1.49 | 0.00 | 94 | 1012.0 |
| 20260904050525 | 68 | 146 | 0.0 | 0.0 | 0.00 | 1.49 | 0.00 | 94 | 1012.1 |
| 20260904050423 | 68 | 146 | 0.0 | 0.0 | 0.00 | 1.49 | 0.00 | 94 | 1012.0 |
| 20260904050320 | 68 | 146 | 0.0 | 0.0 | 0.00 | 1.49 | 0.00 | 94 | 1012.0 |
| 20260904050214 | 68 | 146 | 0.0 | 0.0 | 0.00 | 1.49 | 0.00 | 94 | 1012.0 |
| 20260904050112 | 68 | 146 | 0.0 | 0.0 | 0.00 | 1.49 | 0.00 | 94 | 1012.0 |
| 20260904050010 | 68 | 146 | 0.0 | 0.0 | 0.00 | 1.49 | 0.00 | 94 | 1012.0 |
| 20260904045905 | 68 | 146 | 0.0 | 0.0 | 0.00 | 1.49 | 0.00 | 94 | 1012.0 |
| 20260904045800 | 68 | 146 | 0.0 | 0.0 | 0.00 | 1.49 | 0.00 | 94 | 1012.1 |
| 20260904045436 | 68 | 146 | 0.0 | 0.0 | 0.00 | 1.49 | 0.00 | 93 | 1012.1 |
| 20260904045333 | 68 | 146 | 0.0 | 0.0 | 0.00 | 1.49 | 0.00 | 93 | 1012.1 |
| 20260904045231 | 68 | 146 | 0.0 | 0.0 | 0.00 | 1.49 | 0.00 | 93 | 1012.1 |
| 20260904045128 | 68 | 146 | 0.0 | 0.0 | 0.00 | 1.49 | 0.00 | 93 | 1012.1 |
| 20260904045025 | 68 | 146 | 0.0 | 0.0 | 0.00 | 1.49 | 0.00 | 93 | 1012.1 |
| 20260904044917 | 68 | 146 | 0.0 | 0.0 | 0.00 | 1.49 | 0.00 | 93 | 1012.1 |
| 20260904044812 | 68 | 146 | 0.0 | 0.0 | 0.00 | 1.49 | 0.00 | 93 | 1012.1 |
| 20260904044706 | 68 | 146 | 0.0 | 0.0 | 0.00 | 1.49 | 0.00 | 93 | 1012.1 |
| 20260904044600 | 68 | 146 | 0.0 | 0.0 | 0.00 | 1.49 | 0.00 | 93 | 1012.2 |
| 20260904044455 | 68 | 146 | 0.0 | 0.0 | 0.00 | 1.49 | 0.00 | 93 | 1012.1 |
| 20260904044348 | 68 | 146 | 0.0 | 0.0 | 0.00 | 1.49 | 0.00 | 93 | 1012.1 |
| 20260904044243 | 68 | 146 | 0.0 | 0.0 | 0.00 | 1.49 | 0.00 | 93 | 1012.2 |
| 20260904043922 | 68 | 146 | 0.0 | 0.0 | 0.00 | 1.49 | 0.00 | 93 | 1012.2 |
| 20260904043817 | 68 | 146 | 0.0 | 0.0 | 0.00 | 1.49 | 0.00 | 93 | 1012.2 |
| 20260904043713 | 68 | 146 | 0.0 | 0.0 | 0.00 | 1.49 | 0.00 | 93 | 1012.2 |
| 20260904043606 | 68 | 146 | 0.0 | 0.0 | 0.00 | 1.49 | 0.00 | 93 | 1012.2 |
| 20260904043239 | 68 | 146 | 0.0 | 0.0 | 0.00 | 1.49 | 0.00 | 93 | 1012.2 |
| 20260904043135 | 68 | 146 | 0.0 | 0.0 | 0.00 | 1.49 | 0.00 | 93 | 1012.2 |
| 20260904042555 | 67 | 146 | 0.0 | 0.0 | 0.00 | 1.49 | 0.00 | 93 | 1012.2 |
| 20260904042451 | 68 | 146 | 0.0 | 0.0 | 0.00 | 1.49 | 0.00 | 93 | 1012.2 |
| 20260904041653 | 68 | 146 | 0.0 | 0.0 | 0.00 | 1.49 | 0.00 | 93 | 1012.0 |
| 20260904041550 | 67 | 146 | 0.0 | 0.0 | 0.00 | 1.49 | 0.00 | 93 | 1012.0 |
| 20260904041444 | 67 | 146 | 0.0 | 0.0 | 0.00 | 1.49 | 0.00 | 93 | 1011.9 |
| 20260904041338 | 68 | 146 | 0.0 | 0.0 | 0.00 | 1.49 | 0.00 | 93 | 1011.9 |
| 20260904041235 | 67 | 146 | 0.0 | 0.0 | 0.00 | 1.49 | 0.00 | 93 | 1011.9 |
| 20260904041128 | 67 | 146 | 0.0 | 0.0 | 0.00 | 1.49 | 0.00 | 93 | 1011.9 |
| 20260904041025 | 67 | 146 | 0.0 | 0.0 | 0.00 | 1.49 | 0.00 | 93 | 1011.9 |
| 20260904040440 | 67 | 146 | 0.0 | 0.0 | 0.00 | 1.49 | 0.00 | 93 | 1011.9 |
| 20260904040337 | 67 | 146 | 0.0 | 0.0 | 0.00 | 1.49 | 0.00 | 93 | 1012.0 |
| 20260904040230 | 67 | 146 | 0.0 | 0.0 | 0.00 | 1.49 | 0.00 | 93 | 1012.0 |
| 20260904035910 | 68 | 146 | 0.0 | 0.0 | 0.00 | 1.49 | 1.50 | 93 | 1011.9 |
| 20260904035805 | 68 | 146 | 0.0 | 0.0 | 0.00 | 1.49 | 1.50 | 93 | 1012.0 |
| 20260904035703 | 68 | 146 | 0.0 | 0.0 | 0.00 | 1.49 | 1.50 | 93 | 1012.0 |
| 20260904035558 | 68 | 146 | 0.0 | 0.0 | 0.00 | 1.49 | 1.50 | 93 | 1011.9 |
| 20260904035454 | 68 | 146 | 0.0 | 0.0 | 0.00 | 1.49 | 1.50 | 93 | 1011.9 |
| 20260904035348 | 68 | 146 | 0.0 | 0.0 | 0.00 | 1.49 | 1.50 | 93 | 1011.8 |
| 20260904035241 | 68 | 146 | 0.0 | 0.0 | 0.00 | 1.49 | 1.50 | 93 | 1011.8 |
| 20260904035136 | 68 | 146 | 0.0 | 0.0 | 0.00 | 1.49 | 1.50 | 93 | 1011.7 |
| 20260904035029 | 68 | 146 | 0.0 | 0.0 | 0.00 | 1.49 | 1.50 | 93 | 1011.8 |
| 20260904034927 | 68 | 146 | 0.0 | 0.0 | 0.00 | 1.49 | 1.50 | 93 | 1011.7 |
| 20260904034819 | 68 | 146 | 0.0 | 0.0 | 0.00 | 1.49 | 1.50 | 93 | 1011.7 |
| 20260904034716 | 68 | 146 | 0.0 | 0.0 | 0.00 | 1.49 | 1.50 | 93 | 1011.7 |
| 20260904034611 | 68 | 146 | 0.0 | 0.0 | 0.00 | 1.49 | 1.50 | 93 | 1011.7 |
| 20260904034508 | 68 | 146 | 0.0 | 0.0 | 0.00 | 1.49 | 1.50 | 93 | 1011.7 |
| 20260904034141 | 68 | 146 | 0.0 | 0.0 | 0.00 | 1.49 | 1.50 | 93 | 1011.7 |
| 20260904034035 | 68 | 146 | 0.0 | 0.0 | 0.00 | 1.49 | 1.50 | 93 | 1011.7 |
| 20260904033927 | 68 | 146 | 0.0 | 0.0 | 0.00 | 1.49 | 1.50 | 93 | 1011.7 |
| 20260904033340 | 67 | 146 | 0.0 | 0.0 | 0.00 | 1.49 | 1.50 | 93 | 1011.7 |
| 20260904033233 | 67 | 146 | 0.0 | 0.0 | 0.00 | 1.49 | 1.50 | 93 | 1011.8 |
| 20260904033130 | 67 | 146 | 0.0 | 0.0 | 0.00 | 1.49 | 1.50 | 93 | 1011.8 |
| 20260904033028 | 67 | 146 | 0.0 | 0.0 | 0.00 | 1.49 | 1.50 | 93 | 1011.8 |
| 20260904032924 | 67 | 146 | 0.0 | 0.0 | 0.00 | 1.49 | 1.50 | 93 | 1011.8 |
| 20260904032820 | 68 | 146 | 0.0 | 0.0 | 0.00 | 1.49 | 1.50 | 93 | 1011.8 |
| 20260904032715 | 68 | 146 | 0.0 | 0.0 | 0.00 | 1.49 | 1.50 | 93 | 1011.8 |
| 20260904032610 | 68 | 146 | 0.0 | 0.0 | 0.00 | 1.49 | 1.50 | 93 | 1011.9 |
| 20260904032506 | 68 | 146 | 0.0 | 0.0 | 0.00 | 1.49 | 1.50 | 93 | 1011.8 |
| 20260904032359 | 68 | 146 | 0.0 | 0.0 | 0.00 | 1.49 | 1.50 | 93 | 1011.8 |
| 20260904032256 | 68 | 146 | 0.0 | 0.0 | 0.00 | 1.49 | 1.50 | 93 | 1011.8 |
| 20260904032153 | 68 | 146 | 0.0 | 0.0 | 0.00 | 1.49 | 1.50 | 93 | 1011.8 |
| 20260904031830 | 67 | 146 | 0.0 | 0.0 | 0.00 | 1.49 | 1.50 | 93 | 1011.8 |
| 20260904031724 | 67 | 146 | 0.0 | 0.0 | 0.00 | 1.49 | 1.50 | 93 | 1011.8 |
| 20260904031621 | 67 | 146 | 0.0 | 0.0 | 0.00 | 1.49 | 1.50 | 93 | 1011.8 |
| 20260904031518 | 67 | 146 | 0.0 | 0.0 | 0.00 | 1.49 | 1.50 | 93 | 1011.8 |
| 20260904031415 | 67 | 146 | 0.0 | 0.0 | 0.00 | 1.49 | 1.50 | 93 | 1011.8 |
| 20260904031053 | 67 | 146 | 0.0 | 0.0 | 0.00 | 1.49 | 1.50 | 93 | 1011.8 |
| 20260904030732 | 67 | 146 | 0.0 | 0.0 | 0.00 | 1.49 | 1.50 | 93 | 1011.9 |
| 20260904030624 | 67 | 146 | 0.0 | 0.0 | 0.00 | 1.49 | 1.50 | 93 | 1011.9 |
| 20260904030522 | 67 | 146 | 0.0 | 0.0 | 0.00 | 1.49 | 1.50 | 93 | 1011.9 |
| 20260904030420 | 67 | 146 | 0.0 | 0.0 | 0.00 | 1.49 | 1.50 | 93 | 1011.8 |
| 20260904030317 | 67 | 146 | 0.0 | 0.0 | 0.00 | 1.49 | 1.50 | 92 | 1011.8 |
| 20260904030211 | 67 | 146 | 0.0 | 0.0 | 0.00 | 1.49 | 1.50 | 92 | 1011.8 |
| 20260904030109 | 67 | 146 | 0.0 | 0.0 | 0.00 | 1.49 | 1.50 | 92 | 1011.8 |
| 20260904030006 | 68 | 146 | 0.0 | 0.0 | 0.00 | 1.49 | 1.50 | 92 | 1011.8 |
| 20260904025641 | 68 | 146 | 0.0 | 0.0 | 0.00 | 1.49 | 1.50 | 93 | 1011.7 |
| 20260904025537 | 68 | 146 | 0.0 | 0.0 | 0.00 | 1.49 | 1.50 | 93 | 1011.7 |
| 20260904025435 | 68 | 146 | 0.0 | 0.0 | 0.00 | 1.49 | 1.50 | 93 | 1011.7 |
| 20260904025330 | 68 | 146 | 0.0 | 0.0 | 0.00 | 1.49 | 1.50 | 93 | 1011.6 |
| 20260904025228 | 68 | 146 | 0.0 | 0.0 | 0.00 | 1.49 | 1.50 | 93 | 1011.6 |
| 20260904025124 | 68 | 146 | 0.0 | 0.0 | 0.00 | 1.49 | 1.50 | 93 | 1011.6 |
| 20260904025021 | 68 | 146 | 0.0 | 0.0 | 0.00 | 1.49 | 1.50 | 93 | 1011.5 |
| 20260904024914 | 68 | 146 | 0.0 | 0.0 | 0.00 | 1.49 | 1.50 | 92 | 1011.5 |
| 20260904024810 | 68 | 146 | 0.0 | 0.0 | 0.00 | 1.49 | 1.50 | 92 | 1011.5 |
| 20260904024443 | 68 | 146 | 0.0 | 0.0 | 0.00 | 1.49 | 1.50 | 92 | 1011.4 |
| 20260904024340 | 68 | 146 | 0.0 | 0.0 | 0.00 | 1.49 | 1.50 | 92 | 1011.5 |
| 20260904024235 | 68 | 146 | 0.0 | 0.0 | 0.00 | 1.49 | 1.50 | 92 | 1011.5 |
| 20260904024128 | 68 | 146 | 0.0 | 0.0 | 0.00 | 1.49 | 1.50 | 93 | 1011.5 |
| 20260904024023 | 68 | 146 | 0.0 | 0.0 | 0.00 | 1.49 | 1.50 | 93 | 1011.5 |
| 20260904023919 | 68 | 146 | 0.0 | 0.0 | 0.00 | 1.49 | 1.50 | 93 | 1011.5 |
| 20260904023817 | 68 | 146 | 0.0 | 0.0 | 0.00 | 1.49 | 1.50 | 93 | 1011.5 |
| 20260904023711 | 68 | 146 | 0.0 | 0.0 | 0.00 | 1.49 | 1.50 | 93 | 1011.5 |
| 20260904023349 | 68 | 146 | 0.0 | 0.0 | 0.00 | 1.49 | 1.50 | 93 | 1011.5 |
| 20260904023243 | 68 | 146 | 0.0 | 0.0 | 0.00 | 1.49 | 1.50 | 93 | 1011.6 |
| 20260904023138 | 68 | 146 | 0.0 | 0.0 | 0.00 | 1.49 | 1.50 | 93 | 1011.6 |
| 20260904023031 | 68 | 146 | 0.0 | 0.0 | 0.00 | 1.49 | 1.50 | 93 | 1011.6 |
| 20260904022929 | 68 | 146 | 0.0 | 0.0 | 0.00 | 1.49 | 1.50 | 93 | 1011.6 |
| 20260904022826 | 68 | 146 | 0.0 | 0.0 | 0.00 | 1.49 | 1.50 | 92 | 1011.7 |
| 20260904022724 | 68 | 146 | 0.0 | 0.0 | 0.00 | 1.49 | 1.50 | 92 | 1011.7 |
| 20260904022619 | 68 | 146 | 0.0 | 0.0 | 0.00 | 1.49 | 1.50 | 92 | 1011.7 |
| 20260904022513 | 68 | 146 | 0.0 | 0.0 | 0.00 | 1.49 | 1.50 | 92 | 1011.8 |
| 20260904022408 | 68 | 146 | 0.0 | 0.0 | 0.00 | 1.49 | 1.50 | 92 | 1011.7 |
| 20260904022041 | 68 | 146 | 0.0 | 0.0 | 0.00 | 1.49 | 1.50 | 92 | 1011.7 |
| 20260904021938 | 68 | 146 | 0.0 | 0.0 | 0.00 | 1.49 | 1.50 | 92 | 1011.7 |
| 20260904021835 | 68 | 146 | 0.0 | 0.0 | 0.00 | 1.49 | 1.50 | 92 | 1011.7 |
| 20260904021727 | 68 | 146 | 0.0 | 0.0 | 0.00 | 1.49 | 1.50 | 92 | 1011.7 |
| 20260904021404 | 68 | 146 | 0.0 | 0.0 | 0.00 | 1.49 | 1.50 | 92 | 1011.7 |
| 20260904021300 | 68 | 146 | 0.0 | 0.0 | 0.00 | 1.49 | 1.50 | 92 | 1011.7 |
| 20260904021157 | 68 | 146 | 0.0 | 0.0 | 0.00 | 1.49 | 1.50 | 92 | 1011.7 |
| 20260904021053 | 68 | 146 | 0.0 | 0.0 | 0.00 | 1.49 | 1.50 | 92 | 1011.7 |
| 20260904020946 | 68 | 146 | 0.0 | 0.0 | 0.00 | 1.49 | 1.50 | 92 | 1011.6 |
| 20260904020841 | 68 | 146 | 0.0 | 0.0 | 0.00 | 1.49 | 1.50 | 92 | 1011.6 |
| 20260904020513 | 68 | 146 | 0.0 | 0.0 | 0.00 | 1.49 | 1.50 | 92 | 1011.6 |
| 20260904020411 | 68 | 146 | 0.0 | 0.0 | 0.00 | 1.49 | 1.50 | 92 | 1011.6 |
| 20260904020307 | 68 | 146 | 0.0 | 0.0 | 0.00 | 1.49 | 1.50 | 92 | 1011.6 |
| 20260904015943 | 68 | 146 | 0.0 | 0.0 | 0.00 | 1.49 | 1.50 | 92 | 1011.6 |
| 20260904015836 | 68 | 146 | 0.0 | 0.0 | 0.00 | 1.49 | 1.50 | 92 | 1011.6 |
| 20260904015730 | 68 | 146 | 0.0 | 0.0 | 0.00 | 1.49 | 1.50 | 92 | 1011.5 |
| 20260904015622 | 68 | 146 | 0.0 | 0.0 | 0.00 | 1.49 | 1.50 | 92 | 1011.6 |
| 20260904015516 | 68 | 146 | 0.0 | 0.0 | 0.00 | 1.49 | 1.50 | 92 | 1011.6 |
| 20260904015411 | 68 | 146 | 0.0 | 0.0 | 0.00 | 1.49 | 1.50 | 92 | 1011.6 |
| 20260904015306 | 68 | 146 | 0.0 | 0.0 | 0.00 | 1.49 | 1.50 | 92 | 1011.6 |
| 20260904015157 | 68 | 146 | 0.0 | 0.0 | 0.00 | 1.49 | 1.50 | 92 | 1011.6 |
| 20260904015051 | 68 | 146 | 0.0 | 0.0 | 0.00 | 1.49 | 1.50 | 92 | 1011.5 |
| 20260904014947 | 68 | 146 | 0.0 | 0.0 | 0.00 | 1.49 | 1.50 | 92 | 1011.5 |
| 20260904014843 | 68 | 146 | 0.0 | 0.0 | 0.00 | 1.49 | 1.50 | 92 | 1011.5 |
| 20260904014736 | 68 | 146 | 0.0 | 0.0 | 0.00 | 1.49 | 1.50 | 92 | 1011.5 |
| 20260904014630 | 68 | 146 | 0.0 | 0.0 | 0.00 | 1.49 | 1.50 | 92 | 1011.5 |
| 20260904014524 | 68 | 146 | 0.0 | 0.0 | 0.00 | 1.49 | 1.50 | 92 | 1011.6 |
| 20260904014420 | 68 | 146 | 0.0 | 0.0 | 0.00 | 1.49 | 1.50 | 92 | 1011.6 |
| 20260904014317 | 68 | 146 | 0.0 | 0.0 | 0.00 | 1.49 | 1.50 | 92 | 1011.6 |
| 20260904013950 | 69 | 146 | 0.0 | 0.0 | 0.00 | 1.49 | 1.50 | 92 | 1011.6 |
| 20260904013845 | 69 | 146 | 0.0 | 0.0 | 0.00 | 1.49 | 1.50 | 92 | 1011.6 |
| 20260904013743 | 69 | 146 | 0.0 | 0.0 | 0.00 | 1.49 | 1.50 | 92 | 1011.6 |
| 20260904013640 | 69 | 146 | 0.0 | 0.0 | 0.00 | 1.49 | 1.50 | 92 | 1011.6 |
| 20260904013536 | 69 | 146 | 0.0 | 0.0 | 0.00 | 1.49 | 1.50 | 92 | 1011.7 |
| 20260904013433 | 69 | 146 | 0.0 | 0.0 | 0.00 | 1.49 | 1.50 | 92 | 1011.7 |
| 20260904013330 | 69 | 146 | 0.0 | 0.0 | 0.00 | 1.49 | 1.50 | 92 | 1011.7 |
| 20260904013225 | 69 | 146 | 0.0 | 0.0 | 0.00 | 1.49 | 1.50 | 92 | 1011.7 |
| 20260904013120 | 69 | 146 | 0.0 | 0.0 | 0.00 | 1.49 | 1.50 | 91 | 1011.7 |
| 20260904013012 | 69 | 146 | 0.0 | 0.0 | 0.00 | 1.49 | 1.50 | 91 | 1011.8 |
| 20260904012646 | 69 | 146 | 0.0 | 0.0 | 0.00 | 1.49 | 1.50 | 91 | 1011.7 |
| 20260904012543 | 69 | 146 | 0.0 | 0.0 | 0.00 | 1.49 | 1.50 | 91 | 1011.7 |
| 20260904012439 | 69 | 146 | 0.0 | 0.0 | 0.00 | 1.49 | 1.50 | 91 | 1011.7 |
| 20260904012336 | 69 | 146 | 0.0 | 0.0 | 0.00 | 1.49 | 1.50 | 91 | 1011.6 |
| 20260904012229 | 69 | 146 | 0.0 | 0.0 | 0.00 | 1.49 | 1.50 | 91 | 1011.6 |
| 20260904012123 | 69 | 146 | 0.0 | 0.0 | 0.00 | 1.49 | 1.50 | 91 | 1011.6 |
| 20260904012019 | 69 | 146 | 0.0 | 0.0 | 0.00 | 1.49 | 1.50 | 91 | 1011.6 |
| 20260904011912 | 69 | 146 | 0.0 | 0.0 | 0.00 | 1.49 | 1.50 | 91 | 1011.5 |
| 20260904011807 | 69 | 146 | 0.0 | 0.0 | 0.00 | 1.49 | 1.50 | 91 | 1011.6 |
| 20260904011702 | 69 | 146 | 0.0 | 0.0 | 0.00 | 1.49 | 1.50 | 91 | 1011.6 |
| 20260904011554 | 69 | 146 | 0.0 | 0.0 | 0.00 | 1.49 | 1.50 | 91 | 1011.6 |
| 20260904010754 | 70 | 146 | 0.0 | 0.0 | 0.00 | 1.49 | 1.50 | 91 | 1011.7 |
| 20260904010650 | 70 | 146 | 0.0 | 0.0 | 0.00 | 1.49 | 1.50 | 91 | 1011.7 |
| 20260904010546 | 70 | 146 | 0.0 | 0.0 | 0.00 | 1.49 | 1.50 | 91 | 1011.7 |
| 20260904010440 | 70 | 146 | 0.0 | 0.0 | 0.00 | 1.49 | 1.50 | 91 | 1011.7 |
| 20260904010334 | 70 | 146 | 0.0 | 0.0 | 0.00 | 1.49 | 1.50 | 91 | 1011.8 |
| 20260904010230 | 70 | 146 | 0.0 | 0.0 | 0.00 | 1.49 | 1.50 | 91 | 1011.8 |
| 20260904010126 | 70 | 146 | 0.0 | 0.0 | 0.00 | 1.49 | 1.50 | 91 | 1011.8 |
| 20260904005802 | 70 | 146 | 0.0 | 0.0 | 0.00 | 1.49 | 1.50 | 91 | 1011.9 |
| 20260904005658 | 70 | 146 | 0.0 | 0.0 | 0.00 | 1.49 | 1.50 | 91 | 1011.9 |
| 20260904005552 | 70 | 146 | 0.0 | 0.0 | 0.00 | 1.49 | 1.50 | 91 | 1011.9 |
| 20260904005445 | 70 | 146 | 0.0 | 0.0 | 0.00 | 1.49 | 1.50 | 91 | 1011.8 |
| 20260904005338 | 70 | 146 | 0.0 | 0.0 | 0.00 | 1.49 | 1.50 | 91 | 1011.8 |
| 20260904005231 | 70 | 146 | 0.0 | 0.0 | 0.00 | 1.49 | 1.50 | 90 | 1011.9 |
| 20260904005128 | 70 | 146 | 0.0 | 0.0 | 0.00 | 1.49 | 1.50 | 90 | 1011.8 |
| 20260904005024 | 70 | 146 | 0.0 | 0.0 | 0.00 | 1.49 | 1.50 | 90 | 1011.8 |
| 20260904004922 | 70 | 146 | 0.0 | 0.0 | 0.00 | 1.49 | 1.50 | 90 | 1011.8 |
| 20260904004820 | 70 | 146 | 0.0 | 0.0 | 0.00 | 1.49 | 1.50 | 90 | 1011.7 |
| 20260904004459 | 70 | 146 | 0.0 | 0.0 | 0.00 | 1.49 | 1.50 | 90 | 1011.6 |
| 20260904004355 | 70 | 146 | 0.0 | 0.0 | 0.00 | 1.49 | 1.50 | 90 | 1011.6 |
| 20260904004252 | 70 | 146 | 0.0 | 0.0 | 0.00 | 1.49 | 1.50 | 90 | 1011.6 |
| 20260904004149 | 70 | 146 | 0.0 | 0.0 | 0.00 | 1.49 | 1.50 | 90 | 1011.6 |
| 20260904004046 | 71 | 146 | 0.0 | 0.0 | 0.00 | 1.49 | 1.50 | 90 | 1011.5 |
| 20260904003940 | 71 | 146 | 0.0 | 0.0 | 0.00 | 1.49 | 1.50 | 90 | 1011.5 |
| 20260904003836 | 71 | 146 | 0.0 | 0.0 | 0.00 | 1.49 | 1.50 | 90 | 1011.5 |
| 20260904003511 | 71 | 146 | 0.0 | 0.0 | 0.00 | 1.49 | 1.50 | 89 | 1011.5 |
| 20260904003406 | 71 | 146 | 0.0 | 0.0 | 0.00 | 1.49 | 1.50 | 89 | 1011.5 |
| 20260904003304 | 71 | 146 | 0.0 | 0.0 | 0.00 | 1.49 | 1.50 | 89 | 1011.5 |
| 20260904003200 | 71 | 146 | 0.0 | 0.0 | 0.00 | 1.49 | 1.50 | 89 | 1011.5 |
| 20260904003058 | 71 | 146 | 0.0 | 0.0 | 0.00 | 1.49 | 1.50 | 89 | 1011.5 |
| 20260904002952 | 71 | 146 | 0.0 | 0.0 | 0.00 | 1.49 | 1.50 | 89 | 1011.4 |
| 20260904002849 | 71 | 145 | 0.0 | 0.0 | 0.00 | 1.49 | 1.50 | 89 | 1011.4 |
| 20260904002743 | 71 | 145 | 0.0 | 0.0 | 0.00 | 1.49 | 1.50 | 89 | 1011.3 |
| 20260904002638 | 71 | 145 | 0.0 | 0.0 | 0.00 | 1.49 | 1.50 | 89 | 1011.3 |
| 20260904002533 | 71 | 145 | 0.0 | 0.0 | 0.00 | 1.49 | 1.50 | 89 | 1011.2 |
| 20260904002426 | 71 | 145 | 0.0 | 0.0 | 0.00 | 1.49 | 1.50 | 89 | 1011.1 |
| 20260904002320 | 71 | 145 | 0.0 | 0.0 | 0.00 | 1.49 | 1.50 | 89 | 1011.1 |
| 20260904002216 | 71 | 145 | 0.0 | 0.0 | 0.00 | 1.49 | 1.50 | 89 | 1011.1 |
| 20260904002110 | 71 | 146 | 0.0 | 0.0 | 0.00 | 1.49 | 1.50 | 89 | 1011.1 |
| 20260904002007 | 72 | 145 | 0.0 | 0.0 | 0.00 | 1.49 | 1.50 | 89 | 1011.0 |
| 20260904001901 | 72 | 145 | 0.0 | 0.0 | 0.00 | 1.49 | 1.50 | 89 | 1011.1 |
| 20260904001757 | 72 | 145 | 0.0 | 0.0 | 0.00 | 1.49 | 1.50 | 89 | 1011.0 |
| 20260904001654 | 72 | 145 | 0.0 | 0.0 | 0.00 | 1.49 | 1.50 | 89 | 1011.0 |
| 20260904001550 | 72 | 145 | 0.0 | 0.0 | 0.00 | 1.49 | 1.50 | 89 | 1011.0 |
| 20260904001442 | 72 | 145 | 0.0 | 0.0 | 0.00 | 1.49 | 1.50 | 89 | 1011.0 |
| 20260904001339 | 72 | 145 | 0.0 | 0.0 | 0.00 | 1.49 | 1.50 | 89 | 1011.0 |
| 20260904001234 | 72 | 145 | 0.0 | 0.0 | 0.00 | 1.49 | 1.50 | 89 | 1011.0 |
| 20260904001129 | 72 | 146 | 0.0 | 0.0 | 0.00 | 1.49 | 1.50 | 89 | 1011.0 |
| 20260904001026 | 72 | 145 | 0.0 | 0.0 | 0.00 | 1.49 | 1.50 | 89 | 1010.9 |
| 20260904000651 | 72 | 145 | 0.0 | 0.0 | 0.00 | 1.49 | 1.50 | 89 | 1010.8 |
| 20260904000546 | 72 | 145 | 0.0 | 0.0 | 0.00 | 1.49 | 1.50 | 89 | 1010.9 |
| 20260904000440 | 72 | 145 | 0.0 | 0.0 | 0.00 | 1.49 | 1.50 | 88 | 1010.9 |
| 20260904000334 | 72 | 145 | 0.0 | 0.0 | 0.00 | 1.49 | 1.50 | 88 | 1010.8 |
| 20260904000233 | 72 | 145 | 0.0 | 0.0 | 0.00 | 1.49 | 1.50 | 88 | 1010.7 |
| 20260904000124 | 72 | 145 | 0.0 | 0.0 | 0.00 | 1.49 | 1.50 | 88 | 1010.7 |
| 20260904000019 | 72 | 145 | 0.0 | 0.0 | 0.00 | 1.49 | 1.50 | 88 | 1010.6 |
| 20260903235913 | 72 | 145 | 0.0 | 0.0 | 0.00 | 1.49 | 1.50 | 88 | 1010.6 |
| 20260903235807 | 72 | 145 | 0.0 | 0.0 | 0.00 | 1.49 | 1.50 | 88 | 1010.6 |
| 20260903235701 | 72 | 145 | 0.0 | 0.0 | 0.00 | 1.49 | 1.50 | 88 | 1010.6 |
| 20260903235559 | 72 | 145 | 0.0 | 0.0 | 0.00 | 1.49 | 1.50 | 88 | 1010.6 |
| 20260903235456 | 72 | 145 | 0.0 | 0.0 | 0.00 | 1.49 | 1.50 | 88 | 1010.6 |
| 20260903235350 | 72 | 145 | 0.0 | 0.0 | 0.00 | 1.49 | 1.50 | 88 | 1010.7 |
| 20260903235024 | 72 | 145 | 0.0 | 0.0 | 0.00 | 1.49 | 1.50 | 88 | 1010.8 |
| 20260903234916 | 72 | 145 | 0.0 | 0.0 | 0.00 | 1.49 | 1.50 | 88 | 1010.8 |
| 20260903234812 | 72 | 145 | 0.0 | 0.0 | 0.00 | 1.49 | 1.50 | 88 | 1010.8 |
| 20260903234709 | 73 | 145 | 0.0 | 0.0 | 0.00 | 1.49 | 1.50 | 88 | 1010.7 |
| 20260903234346 | 73 | 146 | 0.0 | 0.0 | 0.00 | 1.49 | 1.50 | 88 | 1010.7 |
| 20260903234239 | 73 | 146 | 0.0 | 0.0 | 0.00 | 1.49 | 1.50 | 88 | 1010.7 |
| 20260903234137 | 73 | 147 | 0.0 | 0.0 | 0.00 | 1.49 | 1.50 | 88 | 1010.6 |
| 20260903234034 | 73 | 147 | 0.0 | 0.0 | 0.00 | 1.49 | 1.50 | 88 | 1010.7 |
| 20260903233932 | 73 | 147 | 0.0 | 0.0 | 0.00 | 1.49 | 1.50 | 88 | 1010.7 |
| 20260903233828 | 73 | 147 | 0.0 | 0.0 | 0.00 | 1.49 | 1.50 | 88 | 1010.7 |
| 20260903233724 | 73 | 147 | 0.0 | 0.0 | 0.00 | 1.49 | 1.50 | 88 | 1010.7 |
| 20260903233620 | 73 | 147 | 0.0 | 0.0 | 0.00 | 1.49 | 1.50 | 88 | 1010.7 |
| 20260903233518 | 73 | 147 | 0.0 | 0.0 | 0.00 | 1.49 | 1.50 | 88 | 1010.7 |
| 20260903233412 | 73 | 147 | 0.0 | 0.0 | 0.00 | 1.49 | 1.50 | 88 | 1010.7 |
| 20260903233307 | 73 | 148 | 0.0 | 0.0 | 0.00 | 1.49 | 1.50 | 88 | 1010.7 |
| 20260903232941 | 73 | 150 | 0.0 | 0.0 | 0.00 | 1.49 | 1.50 | 88 | 1010.7 |
| 20260903232834 | 73 | 150 | 0.0 | 0.0 | 0.00 | 1.49 | 1.50 | 88 | 1010.7 |
| 20260903232728 | 73 | 150 | 0.0 | 0.0 | 0.00 | 1.49 | 1.50 | 88 | 1010.7 |
| 20260903232402 | 73 | 150 | 0.0 | 0.0 | 0.00 | 1.49 | 1.50 | 89 | 1010.9 |
| 20260903232258 | 73 | 150 | 0.0 | 0.0 | 0.00 | 1.49 | 1.50 | 89 | 1010.9 |
| 20260903232149 | 73 | 150 | 0.0 | 0.0 | 0.00 | 1.49 | 1.50 | 89 | 1010.9 |
| 20260903232044 | 73 | 150 | 0.0 | 0.0 | 0.00 | 1.49 | 1.50 | 90 | 1010.8 |
| 20260903231942 | 73 | 150 | 0.0 | 0.0 | 0.00 | 1.49 | 1.50 | 89 | 1010.9 |
| 20260903231838 | 73 | 150 | 0.0 | 0.0 | 0.00 | 1.49 | 1.50 | 89 | 1010.8 |
| 20260903231733 | 73 | 150 | 0.0 | 0.0 | 0.00 | 1.49 | 1.50 | 89 | 1010.8 |
| 20260903231629 | 73 | 150 | 0.0 | 0.0 | 0.00 | 1.49 | 1.50 | 89 | 1010.7 |
| 20260903231303 | 73 | 104 | 0.0 | 0.0 | 0.00 | 1.49 | 1.50 | 90 | 1010.6 |
| 20260903231156 | 73 | 90 | 0.0 | 0.0 | 0.00 | 1.49 | 1.50 | 90 | 1010.5 |
| 20260903231048 | 73 | 90 | 0.0 | 0.0 | 0.00 | 1.49 | 1.50 | 90 | 1010.5 |
| 20260903230943 | 73 | 67 | 0.0 | 0.0 | 0.00 | 1.49 | 1.50 | 90 | 1010.5 |
| 20260903230619 | 73 | 118 | 0.0 | 0.0 | 0.00 | 1.49 | 1.50 | 90 | 1010.6 |
| 20260903230513 | 73 | 130 | 0.0 | 0.0 | 0.00 | 1.49 | 1.50 | 90 | 1010.6 |
| 20260903230409 | 73 | 119 | 0.0 | 0.0 | 0.00 | 1.49 | 1.50 | 90 | 1010.6 |
| 20260903230301 | 73 | 120 | 0.0 | 0.0 | 0.00 | 1.49 | 1.50 | 89 | 1010.8 |
| 20260903230155 | 73 | 118 | 0.0 | 0.0 | 0.00 | 1.49 | 1.50 | 90 | 1010.7 |
| 20260903230049 | 73 | 140 | 0.0 | 0.0 | 0.00 | 1.49 | 1.50 | 90 | 1010.7 |
| 20260903225727 | 72 | 140 | 0.0 | 0.0 | 0.00 | 1.49 | 1.50 | 90 | 1010.9 |
| 20260903225622 | 72 | 140 | 0.0 | 0.0 | 0.00 | 1.49 | 1.50 | 90 | 1010.9 |
| 20260903225515 | 72 | 140 | 0.0 | 0.0 | 0.00 | 1.49 | 1.50 | 90 | 1010.9 |
| 20260903225148 | 72 | 140 | 0.0 | 0.0 | 0.00 | 1.49 | 1.50 | 89 | 1011.0 |
| 20260903225043 | 72 | 134 | 0.0 | 0.0 | 0.00 | 1.49 | 1.50 | 89 | 1011.0 |
| 20260903224719 | 72 | 117 | 0.0 | 0.0 | 0.00 | 1.49 | 1.50 | 89 | 1011.0 |
| 20260903224616 | 72 | 117 | 0.0 | 0.0 | 0.00 | 1.49 | 1.50 | 89 | 1011.1 |
| 20260903224249 | 72 | 105 | 0.0 | 0.0 | 0.00 | 1.49 | 1.50 | 89 | 1011.2 |
| 20260903224145 | 72 | 105 | 0.0 | 0.0 | 0.00 | 1.49 | 1.50 | 89 | 1011.2 |
| 20260903223824 | 72 | 105 | 0.0 | 0.0 | 0.00 | 1.49 | 1.50 | 88 | 1011.3 |
| 20260903223717 | 72 | 105 | 0.0 | 0.0 | 0.00 | 1.49 | 1.50 | 88 | 1011.4 |
| 20260903223354 | 72 | 90 | 0.0 | 0.0 | 0.00 | 1.49 | 1.50 | 88 | 1011.6 |
| 20260903223251 | 72 | 90 | 0.0 | 0.0 | 0.00 | 1.49 | 1.50 | 88 | 1011.6 |
| 20260903223144 | 73 | 90 | 0.0 | 0.0 | 0.00 | 1.49 | 1.50 | 88 | 1011.6 |
| 20260903223036 | 73 | 90 | 0.0 | 0.0 | 0.00 | 1.49 | 1.50 | 88 | 1011.6 |
| 20260903222930 | 73 | 90 | 0.0 | 0.0 | 0.00 | 1.49 | 1.50 | 88 | 1011.6 |
| 20260903222823 | 73 | 90 | 0.0 | 0.0 | 0.00 | 1.49 | 1.50 | 88 | 1011.5 |
| 20260903222720 | 73 | 90 | 0.0 | 0.0 | 0.00 | 1.49 | 1.50 | 87 | 1011.6 |
| 20260903222616 | 73 | 90 | 0.0 | 0.0 | 0.00 | 1.49 | 1.50 | 87 | 1011.6 |
| 20260903222513 | 73 | 90 | 0.0 | 0.0 | 0.00 | 1.49 | 1.50 | 87 | 1011.7 |
| 20260903222407 | 73 | 90 | 0.0 | 0.0 | 0.00 | 1.49 | 1.50 | 87 | 1011.7 |
| 20260903222306 | 73 | 90 | 0.0 | 0.0 | 0.00 | 1.49 | 1.50 | 87 | 1011.7 |
| 20260903222158 | 73 | 90 | 0.0 | 0.0 | 0.00 | 1.49 | 1.50 | 87 | 1011.6 |
| 20260903222055 | 73 | 90 | 0.0 | 0.0 | 0.00 | 1.49 | 1.50 | 87 | 1011.6 |
| 20260903221952 | 73 | 90 | 0.0 | 0.0 | 0.00 | 1.49 | 1.50 | 87 | 1011.6 |
| 20260903221849 | 73 | 90 | 0.0 | 0.0 | 0.00 | 1.49 | 1.50 | 87 | 1011.5 |
| 20260903221741 | 73 | 90 | 0.0 | 0.0 | 0.00 | 1.49 | 1.50 | 86 | 1011.5 |
| 20260903221634 | 73 | 90 | 0.0 | 0.0 | 0.00 | 1.49 | 1.50 | 86 | 1011.4 |
| 20260903221530 | 73 | 90 | 0.0 | 0.0 | 0.00 | 1.49 | 1.50 | 87 | 1011.4 |
| 20260903221423 | 73 | 90 | 0.0 | 0.0 | 0.00 | 1.49 | 1.50 | 87 | 1011.4 |
| 20260903221320 | 73 | 90 | 0.0 | 0.0 | 0.00 | 1.49 | 1.50 | 87 | 1011.4 |
| 20260903221215 | 73 | 90 | 0.0 | 0.0 | 0.00 | 1.49 | 1.50 | 86 | 1011.3 |
| 20260903221110 | 73 | 90 | 0.0 | 0.0 | 0.00 | 1.49 | 1.50 | 86 | 1011.3 |
| 20260903221007 | 73 | 94 | 0.0 | 0.0 | 0.00 | 1.49 | 1.50 | 86 | 1011.4 |
| 20260903220904 | 73 | 59 | 0.0 | 0.0 | 0.00 | 1.49 | 1.50 | 86 | 1011.5 |
| 20260903220802 | 73 | 54 | 0.0 | 0.0 | 0.00 | 1.49 | 1.50 | 86 | 1011.6 |
| 20260903220438 | 73 | 32 | 0.0 | 0.0 | 0.00 | 1.49 | 1.50 | 86 | 1011.6 |
| 20260903220112 | 73 | 32 | 0.0 | 0.0 | 0.00 | 1.49 | 1.50 | 87 | 1011.6 |
| 20260903220007 | 73 | 22 | 0.0 | 0.0 | 0.00 | 1.49 | 1.50 | 87 | 1011.6 |
| 20260903215904 | 73 | 22 | 0.0 | 0.0 | 0.00 | 1.49 | 1.50 | 87 | 1011.6 |
| 20260903215539 | 73 | 20 | 0.0 | 0.0 | 0.00 | 1.49 | 1.50 | 86 | 1011.6 |
| 20260903215432 | 73 | 20 | 0.0 | 0.0 | 0.00 | 1.49 | 1.50 | 86 | 1011.6 |
| 20260903215325 | 73 | 20 | 0.0 | 0.0 | 0.00 | 1.49 | 1.50 | 86 | 1011.6 |
| 20260903215222 | 73 | 20 | 0.0 | 0.0 | 0.00 | 1.49 | 1.50 | 87 | 1011.6 |
| 20260903215115 | 73 | 20 | 0.0 | 0.0 | 0.00 | 1.49 | 1.50 | 86 | 1011.7 |
| 20260903215012 | 73 | 20 | 0.0 | 0.0 | 0.00 | 1.49 | 1.50 | 87 | 1011.7 |
| 20260903214909 | 73 | 20 | 0.0 | 0.0 | 0.00 | 1.49 | 1.50 | 87 | 1011.8 |
| 20260903214544 | 73 | 11 | 0.0 | 0.0 | 0.00 | 1.49 | 1.50 | 88 | 1011.7 |
| 20260903214438 | 73 | 15 | 0.0 | 0.0 | 0.00 | 1.49 | 1.50 | 87 | 1011.7 |
| 20260903214331 | 73 | 15 | 0.0 | 0.0 | 0.00 | 1.49 | 1.50 | 87 | 1011.7 |
| 20260903214225 | 73 | 22 | 0.0 | 0.0 | 0.00 | 1.49 | 1.50 | 87 | 1011.7 |
| 20260903213635 | 73 | 23 | 0.0 | 0.0 | 0.00 | 1.49 | 1.50 | 87 | 1011.7 |
| 20260903213528 | 73 | 23 | 0.0 | 0.0 | 0.00 | 1.49 | 1.50 | 87 | 1011.8 |
| 20260903213422 | 73 | 23 | 0.0 | 0.0 | 0.00 | 1.49 | 1.50 | 87 | 1011.8 |
| 20260903213317 | 73 | 23 | 0.0 | 0.0 | 0.00 | 1.49 | 1.50 | 87 | 1011.8 |
| 20260903213214 | 73 | 23 | 0.0 | 0.0 | 0.00 | 1.49 | 1.50 | 87 | 1011.9 |
| 20260903213110 | 73 | 23 | 0.0 | 0.0 | 0.00 | 1.49 | 1.50 | 87 | 1011.8 |
| 20260903213007 | 73 | 23 | 0.0 | 0.0 | 0.00 | 1.49 | 1.50 | 87 | 1011.8 |
| 20260903212902 | 73 | 23 | 0.0 | 0.0 | 0.00 | 1.49 | 1.50 | 87 | 1011.9 |
| 20260903212754 | 73 | 23 | 0.0 | 0.0 | 0.00 | 1.49 | 1.50 | 87 | 1011.9 |
| 20260903212652 | 73 | 23 | 0.0 | 0.0 | 0.00 | 1.49 | 1.50 | 87 | 1011.9 |
| 20260903212550 | 73 | 23 | 0.0 | 0.0 | 0.00 | 1.49 | 1.50 | 87 | 1011.8 |
| 20260903212225 | 73 | 23 | 0.0 | 0.0 | 0.00 | 1.49 | 1.50 | 87 | 1011.8 |
| 20260903212118 | 73 | 22 | 0.0 | 0.0 | 0.00 | 1.49 | 1.50 | 87 | 1011.8 |
| 20260903212011 | 73 | 22 | 0.0 | 0.0 | 0.00 | 1.49 | 1.50 | 87 | 1011.9 |
| 20260903211904 | 73 | 22 | 0.0 | 0.0 | 0.00 | 1.49 | 1.50 | 87 | 1011.9 |
| 20260903211535 | 73 | 39 | 0.0 | 0.0 | 0.00 | 1.49 | 1.50 | 87 | 1011.7 |
| 20260903211429 | 73 | 39 | 0.0 | 0.0 | 0.00 | 1.49 | 1.50 | 87 | 1011.7 |
| 20260903211326 | 73 | 39 | 0.0 | 0.0 | 0.00 | 1.49 | 1.50 | 87 | 1011.7 |
| 20260903211221 | 73 | 340 | 0.0 | 0.0 | 0.00 | 1.49 | 1.50 | 88 | 1011.7 |
| 20260903211114 | 73 | 340 | 0.0 | 0.0 | 0.00 | 1.49 | 1.50 | 88 | 1011.7 |
| 20260903211012 | 73 | 22 | 0.0 | 0.0 | 0.00 | 1.49 | 1.50 | 87 | 1011.7 |
| 20260903210908 | 73 | 26 | 0.0 | 0.0 | 0.00 | 1.49 | 1.50 | 88 | 1011.7 |
| 20260903210803 | 73 | 27 | 0.0 | 0.0 | 0.00 | 1.49 | 1.50 | 88 | 1011.7 |
| 20260903210700 | 73 | 24 | 0.0 | 0.0 | 0.00 | 1.49 | 1.50 | 88 | 1011.7 |
| 20260903210558 | 73 | 44 | 0.0 | 0.0 | 0.00 | 1.49 | 1.50 | 88 | 1011.7 |
| 20260903210455 | 73 | 61 | 0.0 | 0.0 | 0.00 | 1.49 | 1.50 | 88 | 1011.7 |
| 20260903210351 | 73 | 61 | 0.0 | 0.0 | 0.00 | 1.49 | 1.50 | 88 | 1011.6 |
| 20260903210247 | 73 | 60 | 0.0 | 0.0 | 0.00 | 1.49 | 1.50 | 88 | 1011.6 |
| 20260903210140 | 73 | 46 | 0.0 | 0.0 | 0.00 | 1.49 | 1.50 | 88 | 1011.7 |
| 20260903210038 | 73 | 46 | 0.0 | 0.0 | 0.00 | 1.49 | 1.50 | 89 | 1011.7 |
| 20260903205932 | 73 | 49 | 0.0 | 0.0 | 0.00 | 1.49 | 1.50 | 89 | 1011.7 |
| 20260903205825 | 73 | 49 | 0.0 | 0.0 | 0.00 | 1.49 | 1.50 | 89 | 1011.7 |
| 20260903205722 | 73 | 49 | 0.0 | 0.0 | 0.00 | 1.49 | 1.50 | 89 | 1011.9 |
| 20260903205620 | 73 | 49 | 0.0 | 0.0 | 0.00 | 1.49 | 1.50 | 89 | 1011.8 |
| 20260903205518 | 73 | 49 | 0.0 | 0.0 | 0.00 | 1.49 | 1.50 | 89 | 1011.8 |
| 20260903205412 | 73 | 48 | 0.0 | 0.0 | 0.00 | 1.49 | 1.50 | 89 | 1011.8 |
| 20260903205311 | 73 | 44 | 0.0 | 0.0 | 0.00 | 1.49 | 1.50 | 89 | 1011.9 |
| 20260903205205 | 73 | 43 | 0.0 | 0.0 | 0.00 | 1.49 | 1.50 | 90 | 1011.8 |
| 20260903205101 | 73 | 43 | 0.0 | 0.0 | 0.00 | 1.49 | 1.50 | 90 | 1011.9 |
| 20260903204956 | 73 | 43 | 0.0 | 0.0 | 0.00 | 1.49 | 1.50 | 90 | 1011.9 |
| 20260903204848 | 72 | 43 | 0.0 | 0.0 | 0.00 | 1.49 | 1.50 | 90 | 1011.9 |
| 20260903204519 | 72 | 44 | 0.0 | 0.0 | 0.00 | 1.49 | 1.50 | 90 | 1011.9 |
| 20260903204414 | 72 | 43 | 0.0 | 0.0 | 0.00 | 1.49 | 1.50 | 90 | 1012.0 |
| 20260903204049 | 72 | 20 | 0.0 | 6.0 | 0.00 | 1.49 | 1.50 | 90 | 1012.1 |
| 20260903203945 | 72 | 20 | 0.0 | 6.0 | 0.00 | 1.49 | 1.50 | 90 | 1012.1 |
| 20260903203843 | 72 | 19 | 0.0 | 6.0 | 0.00 | 1.49 | 1.50 | 90 | 1012.1 |
| 20260903203735 | 72 | 35 | 0.0 | 4.0 | 0.00 | 1.49 | 1.50 | 90 | 1012.2 |
| 20260903203633 | 72 | 15 | 0.0 | 0.0 | 0.00 | 1.49 | 1.50 | 90 | 1012.2 |
| 20260903203529 | 72 | 15 | 0.0 | 0.0 | 0.00 | 1.49 | 1.50 | 90 | 1012.2 |
| 20260903203427 | 72 | 15 | 0.0 | 0.0 | 0.00 | 1.49 | 1.50 | 90 | 1012.2 |
| 20260903203321 | 72 | 15 | 0.0 | 0.0 | 0.00 | 1.49 | 1.50 | 90 | 1012.3 |
| 20260903202956 | 71 | 38 | 1.0 | 6.0 | 0.00 | 1.49 | 1.50 | 91 | 1012.2 |
| 20260903202851 | 71 | 46 | 1.0 | 0.0 | 0.04 | 1.49 | 1.50 | 90 | 1012.1 |
| 20260903202744 | 71 | 47 | 1.0 | 0.0 | 0.04 | 1.49 | 1.50 | 91 | 1012.1 |
| 20260903202641 | 71 | 47 | 1.0 | 0.0 | 0.04 | 1.49 | 1.50 | 90 | 1012.2 |
| 20260903202535 | 71 | 27 | 1.0 | 0.0 | 0.04 | 1.49 | 1.50 | 90 | 1012.1 |
| 20260903202206 | 71 | 20 | 1.0 | 12.0 | 0.06 | 1.49 | 1.50 | 90 | 1011.9 |
| 20260903201840 | 71 | 76 | 2.0 | 0.0 | 0.09 | 1.49 | 1.50 | 90 | 1012.1 |
| 20260903201734 | 71 | 24 | 2.0 | 0.0 | 0.10 | 1.49 | 1.50 | 90 | 1012.1 |
| 20260903201412 | 71 | 17 | 4.0 | 14.0 | 0.28 | 1.49 | 1.50 | 90 | 1012.2 |
| 20260903201308 | 71 | 9 | 4.0 | 14.0 | 0.65 | 1.47 | 1.50 | 90 | 1012.3 |
| 20260903201206 | 71 | 24 | 5.0 | 14.0 | 0.85 | 1.45 | 1.49 | 90 | 1012.4 |
| 20260903201059 | 71 | 339 | 5.0 | 14.0 | 3.49 | 1.40 | 1.46 | 89 | 1012.4 |
| 20260903200952 | 71 | 329 | 5.0 | 21.0 | 3.40 | 1.37 | 1.40 | 89 | 1012.5 |
| 20260903200849 | 71 | 9 | 5.0 | 21.0 | 3.37 | 1.33 | 1.37 | 89 | 1012.3 |
| 20260903200743 | 71 | 355 | 5.0 | 21.0 | 2.48 | 1.28 | 1.32 | 89 | 1012.2 |
| 20260903200636 | 71 | 9 | 5.0 | 21.0 | 2.73 | 1.25 | 1.29 | 89 | 1012.1 |
| 20260903200529 | 71 | 0 | 5.0 | 21.0 | 3.67 | 1.16 | 1.25 | 89 | 1012.2 |
| 20260903200426 | 72 | 323 | 6.0 | 21.0 | 3.15 | 1.11 | 1.19 | 89 | 1012.1 |
| 20260903200324 | 72 | 342 | 6.0 | 21.0 | 2.78 | 1.06 | 1.15 | 88 | 1012.0 |
| 20260903200000 | 72 | 295 | 6.0 | 21.0 | 2.46 | 0.92 | 0.99 | 87 | 1012.4 |
| 20260903195853 | 72 | 320 | 6.0 | 21.0 | 5.49 | 0.85 | 0.94 | 88 | 1012.6 |
| 20260903195532 | 73 | 11 | 6.0 | 21.0 | 2.46 | 0.71 | 0.79 | 87 | 1012.4 |
| 20260903195207 | 74 | 355 | 5.0 | 21.0 | 7.58 | 0.46 | 0.55 | 85 | 1011.9 |
| 20260903195103 | 74 | 350 | 5.0 | 21.0 | 4.47 | 0.40 | 0.50 | 85 | 1011.8 |
| 20260903194959 | 75 | 327 | 4.0 | 19.0 | 5.65 | 0.32 | 0.43 | 85 | 1011.7 |
| 20260903194856 | 75 | 25 | 4.0 | 15.0 | 4.54 | 0.29 | 0.35 | 84 | 1011.7 |
| 20260903194749 | 75 | 9 | 4.0 | 10.0 | 1.08 | 0.27 | 0.31 | 83 | 1011.3 |
| 20260903194645 | 75 | 319 | 3.0 | 10.0 | 0.13 | 0.26 | 0.27 | 83 | 1011.1 |
| 20260903194321 | 76 | 266 | 3.0 | 14.0 | 0.35 | 0.26 | 0.27 | 81 | 1009.9 |
| 20260903193957 | 77 | 323 | 2.0 | 14.0 | 0.21 | 0.21 | 0.21 | 79 | 1009.6 |
| 20260903193414 | 80 | 309 | 3.0 | 14.0 | 0.42 | 0.16 | 0.17 | 74 | 1008.9 |
| 20260903193310 | 80 | 317 | 3.0 | 14.0 | 0.57 | 0.14 | 0.17 | 74 | 1008.8 |
| 20260903193205 | 81 | 348 | 3.0 | 14.0 | 0.27 | 0.14 | 0.16 | 73 | 1007.9 |
| 20260903193103 | 81 | 340 | 3.0 | 14.0 | 0.38 | 0.14 | 0.15 | 72 | 1007.7 |
| 20260903192957 | 81 | 320 | 3.0 | 14.0 | 0.38 | 0.13 | 0.15 | 73 | 1007.7 |
| 20260903192634 | 82 | 275 | 1.0 | 14.0 | 0.70 | 0.12 | 0.13 | 68 | 1007.5 |
| 20260903192529 | 82 | 271 | 0.0 | 14.0 | 1.10 | 0.06 | 0.12 | 75 | 1007.8 |
| 20260903192426 | 83 | 182 | 0.0 | 14.0 | 1.80 | 0.04 | 0.06 | 81 | 1008.0 |
| 20260903192100 | 84 | 164 | 0.0 | 0.0 | 0.65 | 0.00 | 0.01 | 82 | 1008.1 |
| 20260903191952 | 84 | 163 | 0.0 | 0.0 | 0.00 | 0.00 | 0.00 | 82 | 1008.1 |
| 20260903191850 | 84 | 163 | 0.0 | 0.0 | 0.00 | 0.00 | 0.00 | 81 | 1008.1 |
| 20260903191743 | 84 | 164 | 0.0 | 0.0 | 0.00 | 0.00 | 0.00 | 81 | 1008.1 |
| 20260903191637 | 84 | 164 | 0.0 | 0.0 | 0.00 | 0.00 | 0.00 | 81 | 1008.2 |
| 20260903191535 | 84 | 165 | 0.0 | 0.0 | 0.00 | 0.00 | 0.00 | 81 | 1008.2 |
| 20260903191208 | 84 | 165 | 0.0 | 0.0 | 0.00 | 0.00 | 0.00 | 80 | 1008.5 |
| 20260903191106 | 84 | 165 | 0.0 | 0.0 | 0.00 | 0.00 | 0.00 | 80 | 1008.7 |
| 20260903191000 | 84 | 165 | 0.0 | 0.0 | 0.00 | 0.00 | 0.00 | 80 | 1008.7 |
| 20260903190852 | 84 | 165 | 0.0 | 0.0 | 0.00 | 0.00 | 0.00 | 80 | 1008.7 |
| 20260903190747 | 85 | 165 | 0.0 | 0.0 | 0.00 | 0.00 | 0.00 | 80 | 1008.6 |
| 20260903190643 | 85 | 165 | 0.0 | 0.0 | 0.00 | 0.00 | 0.00 | 80 | 1008.6 |
| 20260903190538 | 85 | 165 | 0.0 | 0.0 | 0.00 | 0.00 | 0.00 | 80 | 1008.6 |
| 20260903190432 | 85 | 167 | 0.0 | 0.0 | 0.00 | 0.00 | 0.00 | 80 | 1008.6 |
| 20260903190328 | 85 | 168 | 0.0 | 0.0 | 0.00 | 0.00 | 0.00 | 79 | 1008.8 |
| 20260903190000 | 85 | 169 | 0.0 | 0.0 | 0.00 | 0.00 | 0.00 | 79 | 1009.1 |
| 20260903185855 | 85 | 192 | 0.0 | 0.0 | 0.00 | 0.00 | 0.00 | 79 | 1009.2 |
| 20260903185750 | 85 | 192 | 0.0 | 3.0 | 0.00 | 0.00 | 0.00 | 79 | 1009.3 |
| 20260903185422 | 85 | 139 | 0.0 | 0.0 | 0.00 | 0.00 | 0.00 | 80 | 1009.3 |
| 20260903185318 | 85 | 139 | 0.0 | 0.0 | 0.00 | 0.00 | 0.00 | 80 | 1009.3 |
| 20260903185211 | 85 | 122 | 0.0 | 0.0 | 0.00 | 0.00 | 0.00 | 81 | 1009.4 |
| 20260903185104 | 85 | 122 | 0.0 | 0.0 | 0.00 | 0.00 | 0.00 | 80 | 1009.3 |
| 20260903184957 | 85 | 161 | 0.0 | 3.0 | 0.00 | 0.00 | 0.00 | 80 | 1009.3 |
| 20260903184850 | 85 | 164 | 0.0 | 0.0 | 0.00 | 0.00 | 0.00 | 79 | 1009.3 |
| 20260903184525 | 85 | 165 | 0.0 | 1.0 | 0.00 | 0.00 | 0.00 | 79 | 1009.4 |
| 20260903184418 | 85 | 179 | 0.0 | 0.0 | 0.00 | 0.00 | 0.00 | 79 | 1009.5 |
| 20260903184311 | 85 | 180 | 0.0 | 0.0 | 0.00 | 0.00 | 0.00 | 79 | 1009.5 |
| 20260903184207 | 85 | 180 | 0.0 | 3.0 | 0.00 | 0.00 | 0.00 | 79 | 1009.6 |
| 20260903184105 | 85 | 180 | 0.0 | 3.0 | 0.00 | 0.00 | 0.00 | 79 | 1009.6 |
| 20260903184000 | 85 | 162 | 0.0 | 0.0 | 0.00 | 0.00 | 0.00 | 79 | 1009.6 |
| 20260903183856 | 85 | 162 | 0.0 | 0.0 | 0.00 | 0.00 | 0.00 | 78 | 1009.7 |
| 20260903183754 | 85 | 179 | 0.0 | 0.0 | 0.00 | 0.00 | 0.00 | 79 | 1009.8 |
| 20260903183648 | 85 | 200 | 0.0 | 0.0 | 0.00 | 0.00 | 0.00 | 79 | 1009.8 |
| 20260903183545 | 85 | 228 | 0.0 | 0.0 | 0.00 | 0.00 | 0.00 | 79 | 1009.9 |
| 20260903183439 | 85 | 175 | 0.0 | 0.0 | 0.00 | 0.00 | 0.00 | 79 | 1010.0 |
| 20260903183332 | 85 | 201 | 0.0 | 0.0 | 0.00 | 0.00 | 0.00 | 78 | 1010.0 |
| 20260903183226 | 85 | 201 | 0.0 | 0.0 | 0.00 | 0.00 | 0.00 | 78 | 1010.0 |
| 20260903183119 | 85 | 201 | 0.0 | 0.0 | 0.00 | 0.00 | 0.00 | 78 | 1010.0 |
| 20260903182752 | 85 | 207 | 0.0 | 3.0 | 0.00 | 0.00 | 0.00 | 78 | 1010.1 |
| 20260903182647 | 85 | 225 | 0.0 | 3.0 | 0.00 | 0.00 | 0.00 | 78 | 1010.1 |
| 20260903182539 | 85 | 132 | 0.0 | 2.0 | 0.00 | 0.00 | 0.00 | 78 | 1010.1 |
| 20260903182436 | 85 | 128 | 0.0 | 2.0 | 0.00 | 0.00 | 0.00 | 78 | 1010.1 |
| 20260903182333 | 85 | 119 | 0.0 | 0.0 | 0.00 | 0.00 | 0.00 | 78 | 1010.1 |
| 20260903182225 | 85 | 117 | 0.0 | 0.0 | 0.00 | 0.00 | 0.00 | 79 | 1010.1 |
| 20260903182118 | 85 | 118 | 0.0 | 6.0 | 0.00 | 0.00 | 0.00 | 78 | 1010.2 |
| 20260903182011 | 85 | 117 | 0.0 | 6.0 | 0.00 | 0.00 | 0.00 | 78 | 1010.1 |